ECMWFFLT1_850_thetae_063.txt.gz
Theta_e
334 334 334 332 333 334 334 333 334 334 333 332 332 332 331 329 330 332 332 333 334 334 334 333 332 332 332 332 331 331 332 331 329 328 327 328 328 328 328 328 328 326 325 325 327 328 329 330 329 329 330 329 328 327 327 328 328 329 329 328 327 327 325
335 335 335 334 333 333 333 333 333 332 332 332 331 331 330 329 331 333 333 333 334 334 334 333 333 333 331 330 330 331 331 331 330 328 328 328 328 328 329 328 327 327 327 327 327 327 328 330 330 329 330 329 328 327 327 328 328 329 329 327 327 327 325
335 335 335 334 334 334 333 334 334 333 332 332 331 330 330 330 332 333 333 333 334 334 333 333 333 332 330 330 330 331 331 330 330 329 328 328 328 328 328 328 328 328 329 328 328 327 328 329 329 329 330 329 328 327 326 327 328 329 328 327 327 327 326
335 335 334 334 334 333 333 333 334 334 333 332 331 331 331 331 331 332 333 333 333 334 333 333 332 331 330 331 331 331 330 330 330 329 329 328 327 327 327 328 329 329 329 329 328 328 327 327 328 329 330 330 328 327 326 326 328 328 328 327 327 328 327
334 334 334 334 334 333 331 332 334 334 333 332 331 331 332 332 331 331 332 333 333 333 334 332 331 330 331 332 331 331 331 331 330 329 328 327 326 326 327 328 329 329 329 328 328 328 328 327 328 329 329 329 329 328 328 326 326 328 327 327 327 327 328
331 332 333 333 333 333 333 333 333 332 333 332 331 331 333 333 332 332 332 333 333 333 333 332 332 331 331 331 331 331 331 330 330 328 326 326 326 326 327 328 328 328 327 326 328 328 328 328 329 329 328 329 329 329 329 328 326 328 327 327 328 327 327
330 330 331 331 331 332 332 333 333 332 332 332 331 332 333 333 333 333 333 333 332 333 333 332 332 332 331 330 330 330 329 329 329 328 326 327 327 327 327 328 328 327 326 326 328 328 328 328 328 328 328 329 329 328 329 329 327 327 327 327 328 327 327
329 330 330 330 330 330 330 330 331 331 332 331 332 333 333 333 334 334 333 334 333 332 333 332 331 331 330 330 330 330 329 329 328 327 327 328 328 327 326 327 327 327 326 327 327 328 328 327 327 328 328 328 328 328 328 328 328 328 327 328 328 327 327
326 327 329 329 330 329 329 329 329 330 331 331 331 331 331 331 332 333 333 333 332 331 331 332 331 330 330 329 330 330 329 329 328 328 327 327 327 327 326 326 326 327 326 326 327 327 327 327 326 327 327 327 327 328 329 329 329 328 327 328 327 326 326
324 325 326 327 328 329 329 330 331 330 331 331 331 331 330 329 330 331 332 331 331 330 330 331 330 330 329 329 329 330 329 328 328 327 327 326 326 326 327 326 327 326 325 327 329 328 327 326 326 326 327 327 327 328 330 329 328 328 327 328 327 326 325
324 324 324 325 327 328 328 329 330 330 330 331 331 330 331 330 328 329 331 331 331 330 330 331 330 330 330 329 329 329 328 327 327 326 325 325 324 324 325 326 327 327 327 328 329 327 326 326 325 326 327 327 328 328 328 327 327 327 327 327 326 325 325
323 324 324 324 325 327 328 328 329 329 329 329 330 330 331 331 329 329 330 331 330 329 330 331 330 330 330 329 329 328 328 328 327 326 325 324 323 323 324 326 327 327 327 328 327 325 325 325 324 326 327 327 328 328 327 326 326 326 326 326 325 325 325
323 323 323 324 324 326 327 328 328 329 329 329 329 329 329 330 330 330 329 330 330 329 330 330 330 329 330 329 328 329 329 329 328 327 326 325 324 324 325 327 328 327 327 327 327 326 325 325 326 328 329 329 328 328 327 327 326 326 326 326 325 325 326
322 323 323 324 325 326 326 327 327 329 330 329 329 329 328 329 330 330 329 329 329 329 330 330 329 329 329 328 328 329 329 329 328 326 326 326 326 327 327 329 329 327 327 328 327 327 327 328 329 330 330 331 330 328 327 326 326 327 326 326 325 325 325
320 322 323 324 325 325 325 326 326 327 328 328 329 328 328 328 328 329 329 328 328 329 330 330 329 329 327 327 328 329 330 330 329 327 326 327 328 328 329 330 330 328 328 328 327 328 330 329 329 329 328 329 329 328 327 326 326 325 325 325 325 325 325
319 320 321 323 324 325 325 325 325 326 327 328 328 328 327 328 328 328 327 327 328 329 330 329 329 328 326 326 328 330 331 331 329 328 328 328 329 329 330 330 330 328 328 329 328 328 330 328 327 327 327 328 329 328 327 327 326 325 324 325 325 325 325
317 318 319 322 324 324 324 324 325 325 326 327 328 327 327 327 328 328 328 327 327 328 329 329 329 328 326 327 328 329 330 330 329 330 330 330 330 329 329 330 330 329 329 329 328 328 328 327 326 327 327 329 329 327 326 326 325 324 324 324 325 325 325
315 315 317 320 322 323 324 325 325 325 326 326 327 327 326 326 327 328 328 327 327 328 328 328 329 328 327 326 327 328 329 330 331 332 331 331 330 329 329 330 330 329 329 329 328 328 328 326 326 328 329 330 329 327 326 326 325 324 324 324 324 324 325
313 313 315 318 320 322 323 325 326 325 326 326 326 326 325 325 327 328 328 327 327 327 327 327 328 328 328 327 326 328 330 330 331 331 331 331 330 329 329 330 330 330 330 329 328 328 328 326 326 328 329 329 328 326 326 326 325 325 324 324 323 323 324
312 312 313 315 318 321 322 324 325 325 325 326 326 326 325 325 327 328 328 327 326 325 326 327 327 327 327 328 327 328 330 330 330 330 330 331 331 330 330 329 329 329 329 329 328 327 328 327 326 327 328 328 327 325 326 327 326 325 324 324 322 321 322
312 312 311 313 316 319 321 322 323 324 325 325 325 325 325 325 327 328 328 327 326 325 326 327 327 327 326 326 326 327 328 330 330 330 330 330 330 330 329 329 329 329 329 329 328 328 328 328 327 327 328 327 326 325 325 326 327 326 325 323 321 320 320
311 311 311 311 313 316 319 321 322 323 324 324 324 325 324 325 326 327 327 327 327 326 326 327 327 327 327 326 327 328 328 329 329 329 328 328 328 328 328 329 330 330 329 329 328 328 328 328 329 329 328 327 326 326 326 326 327 326 324 323 322 321 320
310 310 310 310 311 312 315 318 320 321 322 323 324 324 324 324 325 326 326 326 325 324 325 326 326 326 326 326 326 326 327 328 328 327 327 327 328 329 329 331 331 329 329 328 327 328 328 327 328 329 328 327 327 327 327 325 325 325 324 323 323 323 321
310 309 309 309 309 310 312 314 317 318 320 321 323 324 323 323 324 325 325 325 325 323 323 324 325 325 326 326 325 324 325 326 327 329 328 326 326 328 329 329 330 328 327 327 327 327 327 327 327 327 327 327 327 327 327 325 324 324 324 323 323 323 322
308 309 309 309 309 308 309 311 313 315 316 318 319 321 322 322 322 323 323 324 325 325 324 325 325 325 324 325 324 324 324 324 325 327 329 328 327 327 326 326 327 326 325 325 326 327 327 327 327 327 327 326 326 327 326 326 324 323 323 323 323 323 323
308 308 308 308 308 308 307 308 310 311 312 313 315 316 318 319 320 321 321 322 323 324 325 325 324 323 323 324 325 325 325 324 324 325 327 328 327 327 327 325 325 325 325 325 325 326 327 326 326 326 325 325 325 325 325 326 325 323 323 324 323 323 324
307 307 307 307 307 307 307 307 307 307 308 309 311 313 314 315 316 318 319 320 320 322 324 325 324 324 324 325 326 326 325 324 324 325 326 327 327 328 327 327 326 326 326 326 324 325 327 327 326 325 325 324 324 325 325 326 325 324 323 324 324 324 323
306 306 306 306 306 306 306 306 306 306 306 307 308 309 310 311 312 313 315 316 317 320 322 324 324 325 325 325 326 326 325 324 324 324 325 325 327 328 327 327 328 328 327 326 325 326 327 327 326 324 324 325 325 325 326 326 325 324 323 324 325 324 323
305 305 305 305 306 305 305 306 305 305 305 306 306 306 307 308 309 310 311 312 314 316 319 322 323 324 325 325 325 325 325 324 324 323 323 323 325 327 326 327 328 327 326 327 327 325 326 326 326 324 325 326 326 326 325 325 325 325 324 325 325 325 323
304 304 305 305 305 305 305 305 305 305 305 305 305 305 305 306 307 308 308 309 311 312 314 317 319 321 323 324 325 325 325 325 324 324 324 324 324 325 326 325 326 326 326 327 327 325 325 325 325 325 325 325 325 325 324 324 325 325 325 324 325 324 323
304 304 304 304 304 304 304 304 304 304 304 305 305 304 304 305 305 305 306 307 308 309 310 312 314 317 320 322 324 324 324 325 325 324 324 324 323 325 326 324 324 325 325 323 324 325 324 324 325 325 325 324 323 323 323 323 324 324 324 324 324 324 324
303 303 303 303 303 303 303 303 303 303 304 304 304 304 304 304 304 304 304 305 306 307 308 309 310 312 315 318 321 322 323 324 324 324 324 324 323 324 325 323 323 325 325 323 324 325 325 325 325 325 324 322 322 323 323 323 324 324 324 324 324 323 323
303 303 303 303 303 303 303 303 303 303 303 303 303 303 303 303 303 303 303 303 304 305 306 307 308 309 311 313 316 318 320 321 321 322 323 323 323 322 323 323 323 324 325 325 325 325 325 325 324 323 323 322 322 323 324 323 322 322 322 321 321 321 321
302 302 302 302 302 302 302 302 302 302 302 302 302 302 301 301 302 302 302 302 302 303 304 305 306 307 308 310 312 313 315 317 318 319 320 321 321 321 321 322 322 323 324 325 325 325 324 324 323 322 321 321 321 322 321 320 319 318 317 317 317 317 317
302 301 301 301 301 301 301 301 301 302 302 302 302 301 301 301 301 301 301 301 301 302 303 303 304 305 306 308 309 310 311 313 314 316 317 317 318 319 320 320 320 322 323 324 324 324 324 323 322 321 320 319 319 319 318 317 316 315 315 314 314 314 314
301 301 301 301 301 301 300 300 300 301 301 301 301 301 301 300 300 300 300 300 300 301 302 302 303 304 305 306 307 308 308 310 311 312 313 314 314 315 317 318 319 319 321 322 322 322 323 322 320 319 319 318 317 316 315 315 314 313 312 312 311 312 312
301 301 300 300 300 300 300 299 299 299 300 300 300 300 300 300 300 300 299 299 299 300 301 301 302 302 303 303 304 305 306 307 308 309 310 311 311 312 314 316 317 318 319 320 319 318 318 319 318 318 318 316 314 313 312 312 312 311 310 309 309 309 310

ECMWFFLT1_850_thetae_069.txt.gz
Theta_e
335 335 335 335 335 334 334 333 333 333 333 333 333 333 334 334 334 334 334 334 334 334 332 331 331 331 331 332 332 331 331 332 332 332 332 332 332 332 331 330 330 330 330 329 328 328 328 328 328 328 328 328 328 328 328 329 329 329 328 328 328 328 328
333 333 334 334 334 334 334 333 332 332 333 333 333 333 334 333 333 333 333 334 334 333 333 332 332 332 332 332 332 332 332 332 332 332 333 332 332 332 332 331 330 330 330 329 329 329 328 327 327 327 327 328 329 329 329 329 329 329 329 328 328 329 328
333 332 332 333 333 333 333 333 333 333 333 333 333 333 333 333 332 333 333 333 333 332 332 332 332 332 332 332 332 332 333 332 331 332 333 332 332 332 332 332 331 330 330 329 329 329 328 327 327 326 325 326 327 328 328 329 329 329 328 328 328 328 328
332 331 331 331 332 332 332 332 332 332 332 332 332 332 333 333 332 332 332 333 333 332 332 331 332 332 332 332 332 332 332 332 332 332 332 333 332 331 331 332 331 330 330 329 329 329 328 327 326 326 324 324 326 327 328 328 329 328 328 328 328 328 328
330 330 330 330 330 330 331 331 331 331 331 330 330 331 331 332 332 332 332 332 333 332 332 331 331 331 331 332 332 331 331 332 332 331 331 332 332 331 330 331 331 331 330 329 328 328 328 327 326 326 325 325 326 328 328 328 329 328 328 328 328 328 328
326 326 326 327 327 328 329 329 329 329 329 329 329 329 329 330 330 330 331 331 331 331 331 331 331 331 331 331 331 331 331 331 331 331 331 331 331 331 331 331 331 331 330 329 328 328 328 328 327 327 326 325 325 326 328 328 329 328 328 328 328 328 328
322 323 323 324 324 325 326 327 328 328 328 328 328 328 329 329 329 330 330 331 331 330 330 330 330 330 330 330 330 331 331 331 331 331 331 331 331 330 331 331 331 330 330 329 328 328 329 329 328 327 327 326 325 326 328 328 329 329 328 328 328 328 328
320 321 321 322 322 323 324 325 326 327 327 327 328 328 328 329 330 330 330 330 330 330 330 330 329 329 328 328 329 330 330 331 331 330 330 331 331 330 330 330 330 330 330 329 328 329 329 329 328 327 327 326 327 328 328 328 329 329 328 327 327 328 328
318 318 319 320 321 322 323 323 324 324 326 327 327 327 328 329 329 329 329 329 329 329 329 329 328 328 327 327 328 328 329 330 330 330 330 330 331 330 331 331 330 330 330 328 328 328 328 328 328 327 327 327 327 328 329 329 329 329 328 327 327 328 328
316 316 316 317 319 320 321 322 322 323 325 326 326 326 326 327 328 328 328 328 328 328 328 328 328 327 326 326 327 327 328 329 330 330 330 330 330 330 330 331 331 330 329 328 327 327 327 328 327 327 327 328 328 328 328 328 328 328 328 328 327 327 328
314 314 314 315 316 317 318 319 321 322 322 323 323 323 324 326 327 327 327 327 327 327 326 326 325 325 325 325 326 327 328 329 329 329 330 330 330 329 330 330 330 330 329 327 326 326 327 328 328 328 328 328 328 328 327 327 327 327 328 328 327 326 327
313 312 312 313 313 315 316 317 319 320 321 321 322 322 323 325 326 326 326 325 325 325 325 324 324 324 324 325 326 327 327 328 328 328 329 329 330 330 330 330 330 330 328 326 326 326 327 327 327 327 327 326 327 328 328 327 326 326 327 328 327 326 327
311 311 311 312 312 314 315 317 318 319 321 321 322 322 323 324 324 324 324 323 324 326 326 326 326 325 325 325 326 326 326 326 327 328 329 329 329 330 330 329 330 330 328 327 326 327 327 327 327 327 326 326 327 328 328 328 327 326 327 327 327 327 327
311 310 311 311 312 313 315 316 317 319 321 321 322 322 323 323 323 323 323 324 326 326 326 327 327 327 327 326 326 327 327 327 328 328 328 329 329 329 329 329 330 329 328 328 327 328 328 327 327 327 327 327 327 327 328 328 327 328 327 327 327 328 327
310 310 310 310 311 313 315 316 316 318 320 321 322 322 322 323 323 322 323 324 326 325 325 326 327 327 327 326 326 327 327 328 328 327 327 328 329 329 329 329 329 329 329 329 328 328 327 327 328 327 327 327 327 327 328 328 328 328 328 327 327 327 328
310 310 310 309 310 312 314 315 315 316 318 320 321 321 321 322 322 320 321 323 325 325 325 326 327 327 327 326 326 327 327 327 328 328 328 329 329 329 329 329 329 328 329 329 328 327 327 327 328 327 326 327 328 328 328 328 328 328 328 326 326 327 327
310 309 309 308 309 311 313 313 313 314 315 317 319 320 320 321 321 319 320 322 324 325 325 326 327 327 327 327 327 327 327 327 327 328 328 328 328 328 328 328 328 328 328 328 328 327 327 327 327 327 327 328 328 327 328 328 328 327 327 326 326 327 327
309 308 308 307 308 309 311 312 311 311 312 314 315 317 318 320 320 320 320 321 323 323 324 324 325 325 325 326 326 327 327 327 327 327 327 328 328 328 328 328 327 327 328 328 328 328 328 327 327 327 328 328 327 327 327 326 326 327 327 326 327 327 327
307 307 307 306 306 307 308 310 309 309 310 311 312 313 315 316 318 318 319 320 321 322 322 322 321 321 322 323 324 326 327 327 327 327 327 327 327 327 327 327 327 327 326 327 327 328 329 328 328 327 327 328 327 326 325 325 326 327 327 327 327 327 327
306 306 306 306 305 305 306 307 307 307 308 308 309 310 311 312 313 315 316 318 319 320 320 320 320 319 319 320 322 324 326 327 327 327 327 326 326 326 325 326 327 327 327 326 327 327 329 329 328 326 327 329 328 327 326 326 328 328 328 328 327 326 326
304 304 305 305 305 304 305 305 305 306 306 307 307 307 307 308 309 311 313 314 315 316 318 320 320 319 319 319 320 323 325 326 327 327 327 326 325 325 325 325 326 327 327 327 327 328 328 330 329 327 327 328 328 327 328 328 329 329 328 328 327 326 326
304 304 304 304 303 303 304 304 304 304 305 305 306 306 306 307 307 308 310 311 312 313 315 316 316 316 318 318 319 321 324 325 326 327 327 326 326 325 324 325 325 325 326 327 327 328 328 328 329 328 326 327 328 328 328 328 328 328 328 328 327 327 326
304 304 303 303 303 303 303 303 303 303 303 303 304 305 305 306 307 307 307 308 309 310 312 312 312 313 315 317 319 320 322 324 326 326 327 326 326 325 324 323 324 324 324 325 325 327 327 327 328 327 326 327 328 328 328 328 328 328 328 328 328 327 326
303 303 303 303 303 303 303 303 302 302 302 302 302 303 303 304 304 305 306 306 307 307 308 308 309 311 313 316 318 319 321 323 324 325 325 325 325 325 325 324 324 323 323 323 324 325 326 327 326 326 326 326 327 328 328 328 328 327 327 327 327 327 326
303 303 303 303 302 302 302 303 302 302 302 301 301 301 301 301 301 302 304 304 305 305 306 306 307 309 312 314 316 318 319 321 322 323 324 324 324 325 325 323 323 323 322 323 323 324 325 326 326 325 326 326 325 327 328 327 327 327 327 327 327 327 327
302 302 302 302 302 302 302 303 303 302 301 301 300 300 300 300 299 300 301 302 303 304 304 305 306 307 309 311 313 315 317 318 320 321 322 323 324 324 324 323 321 321 321 322 322 323 323 324 324 325 325 325 325 326 327 327 327 327 326 326 326 326 326
301 301 301 301 300 300 301 302 302 302 301 300 300 299 299 299 299 299 299 300 301 302 303 304 305 306 307 309 310 313 314 316 318 320 320 321 322 323 324 324 322 320 320 321 322 322 322 322 323 325 326 325 324 325 327 327 327 327 326 326 326 325 325
301 300 300 299 298 298 299 301 301 301 301 300 299 298 298 298 298 299 299 299 299 300 301 302 303 304 306 307 308 310 312 314 316 318 319 319 320 322 324 324 323 321 320 321 321 322 323 322 323 325 326 326 325 325 326 327 327 326 326 326 325 325 325
300 300 299 299 298 296 296 298 299 300 300 299 298 298 298 298 298 298 298 298 299 299 299 300 301 302 304 305 307 308 310 311 313 315 317 318 319 320 322 323 324 322 321 321 321 322 323 323 324 325 325 325 326 326 326 326 326 326 325 325 325 325 325
299 299 299 299 298 297 296 296 297 298 299 299 298 298 299 299 298 298 298 298 298 299 299 299 300 301 302 303 304 306 307 308 310 312 314 315 316 318 319 321 322 323 322 322 322 322 324 325 325 324 324 324 325 326 325 324 324 325 325 325 326 325 324
299 299 299 298 298 298 297 296 296 297 298 297 296 297 298 299 298 299 298 297 297 298 298 299 299 300 300 301 302 303 304 306 307 308 310 311 313 314 315 316 319 321 322 322 322 323 324 325 325 324 324 324 325 325 325 324 323 324 325 326 326 325 324
299 299 299 299 298 298 298 297 296 296 296 296 295 296 298 299 298 298 297 296 297 298 298 298 298 299 299 300 301 301 302 303 304 305 307 308 310 311 312 313 315 318 319 321 322 322 324 325 325 324 324 324 324 324 325 325 325 325 325 326 326 325 325
298 299 299 299 298 298 297 297 297 296 296 296 295 295 297 298 297 296 295 295 296 298 298 298 298 298 298 299 299 299 300 301 302 303 304 305 307 308 309 310 312 315 316 318 320 321 323 324 324 323 324 324 324 323 324 325 325 325 325 325 325 325 324
298 299 299 299 298 298 297 297 297 296 296 296 296 295 295 295 295 295 294 293 294 296 298 298 298 298 298 298 298 298 299 300 300 300 301 303 304 305 305 307 308 311 312 314 317 319 321 323 323 323 323 323 324 324 324 323 324 324 324 324 324 325 324
299 299 298 298 298 297 297 297 297 297 296 296 296 295 295 295 295 295 294 293 293 294 296 298 298 298 298 297 297 298 298 299 299 299 300 300 301 302 302 303 304 306 307 309 312 315 318 321 322 323 323 323 323 324 323 322 322 323 323 322 323 324 324
299 299 298 298 298 297 297 297 297 297 296 296 296 295 295 295 295 295 295 294 293 293 294 296 298 298 298 297 297 297 297 298 298 298 299 299 299 299 300 301 302 303 304 306 308 311 313 317 320 322 323 322 323 322 321 320 321 321 320 321 322 322 322
299 299 298 298 298 297 297 297 297 297 296 296 296 296 295 295 295 295 295 294 293 292 293 295 297 298 298 298 297 297 296 297 298 298 299 299 299 299 299 300 301 302 303 304 306 307 310 313 316 320 321 321 322 321 319 318 319 318 317 317 319 320 321

ECMWFFLT1_850_thetae_072.txt.gz
Theta_e
333 333 333 334 334 334 334 333 332 332 331 330 330 330 331 332 332 332 332 332 332 331 332 332 333 333 332 332 332 332 332 332 332 332 332 332 332 331 331 332 332 332 331 331 331 330 330 329 329 329 329 330 330 330 329 329 329 330 330 330 329 329 329
333 332 332 332 332 332 333 333 332 332 332 331 331 331 332 332 332 332 332 332 331 332 332 332 332 332 332 332 331 331 331 332 332 332 332 331 331 331 331 331 331 331 331 331 331 331 330 329 329 328 328 330 331 331 330 329 329 329 329 329 329 329 329
331 331 331 331 330 331 331 332 331 331 331 331 331 332 332 332 332 332 332 332 332 332 332 332 332 332 331 331 331 331 331 331 331 331 331 331 331 331 331 331 331 331 331 331 331 331 330 329 329 328 327 328 329 329 329 328 328 328 328 329 329 329 329
330 330 329 329 328 329 330 330 330 329 329 329 330 331 331 330 331 331 331 331 331 331 331 331 331 331 331 331 331 331 330 330 330 330 330 331 331 330 331 331 331 331 331 331 331 331 331 330 330 328 327 327 327 327 326 326 327 327 328 328 329 329 329
328 327 327 327 327 327 327 327 327 328 329 329 329 329 329 329 329 329 329 329 330 330 330 330 330 330 330 330 330 329 329 329 329 329 330 330 330 330 331 331 331 331 331 331 331 331 331 330 330 329 327 326 327 325 324 325 327 328 328 329 329 329 329
325 325 325 325 324 324 324 324 324 325 327 327 327 327 328 328 327 328 328 329 329 329 330 329 329 329 329 329 329 328 328 328 327 327 328 329 329 330 330 330 331 331 331 331 331 331 331 330 329 329 328 327 326 325 323 324 326 327 329 329 329 329 329
323 323 322 322 322 322 322 322 322 323 324 325 325 326 326 326 326 327 328 328 328 329 329 328 328 328 328 328 328 328 328 327 326 326 326 327 328 329 330 330 330 331 330 330 330 331 330 330 329 329 328 327 326 325 325 325 325 328 329 329 329 329 329
321 321 321 321 321 321 321 322 322 322 322 323 324 324 324 324 325 326 326 327 327 328 328 328 328 327 327 326 326 326 326 326 325 325 325 326 327 328 329 329 329 330 330 330 330 330 330 330 329 329 328 328 327 326 326 326 325 326 328 329 328 329 329
318 318 319 319 320 321 321 322 322 322 322 322 323 323 323 324 324 324 324 325 326 327 327 326 325 324 324 324 324 324 324 324 324 324 325 326 327 328 328 329 329 329 330 330 330 330 330 330 329 329 328 328 328 327 327 327 325 324 325 327 328 328 328
316 316 317 317 318 319 319 320 320 320 321 321 322 322 322 322 323 323 323 323 324 325 324 323 322 323 323 324 324 324 324 324 324 325 325 326 327 327 328 329 329 329 329 330 330 330 330 330 329 329 328 328 328 328 327 327 326 324 323 325 327 328 328
314 315 316 316 316 316 317 317 318 318 319 320 320 321 321 321 322 322 322 323 323 323 322 322 323 324 324 324 324 325 325 325 326 326 325 325 326 327 328 328 329 329 329 329 330 330 330 330 329 328 328 328 328 328 327 327 326 324 323 325 327 327 328
312 313 314 313 313 314 314 315 316 317 318 319 319 320 321 321 321 321 321 321 322 321 322 323 324 323 323 323 324 324 325 325 326 326 326 326 326 326 327 327 328 328 328 328 329 330 330 330 329 328 327 327 328 328 327 327 327 325 325 326 326 327 327
311 311 311 311 312 313 313 313 315 316 318 319 320 320 321 320 320 320 320 320 320 321 322 324 324 324 324 324 325 326 325 325 325 325 326 326 326 326 327 327 328 328 328 328 328 329 330 329 328 327 326 327 327 328 328 328 327 326 326 326 326 326 327
309 310 311 311 311 311 311 312 314 315 317 318 319 320 320 320 319 319 319 319 319 320 322 323 324 324 324 324 325 326 326 326 325 325 325 326 326 326 327 327 328 328 329 329 329 330 330 328 328 327 326 326 327 327 327 327 327 327 327 326 326 326 327
308 309 310 311 311 310 310 311 312 314 315 316 317 318 319 319 319 319 318 318 318 319 320 321 321 322 322 323 323 324 325 325 325 325 325 325 326 326 326 327 328 328 329 329 329 330 330 328 327 327 327 327 327 327 327 327 327 327 327 327 327 327 327
307 307 309 310 310 309 308 309 310 311 312 313 314 315 316 317 317 318 318 318 317 317 318 318 319 320 320 320 321 321 323 324 325 325 325 325 326 326 326 327 328 328 328 328 329 330 330 329 328 327 327 327 327 327 327 327 327 327 327 326 327 327 327
306 306 306 307 308 307 307 307 308 308 309 310 311 312 313 314 315 316 316 316 316 317 317 317 318 319 319 319 319 319 321 323 324 325 325 325 326 326 327 327 327 328 328 328 329 329 329 328 328 328 327 327 326 326 326 327 327 327 327 327 327 327 327
304 304 304 305 306 305 305 306 307 307 307 308 309 309 310 311 312 313 312 313 313 314 315 316 317 318 318 319 319 318 319 322 324 325 326 326 326 326 327 327 327 327 328 328 328 329 329 329 328 327 326 326 325 324 325 326 327 327 327 327 328 328 327
303 303 303 303 303 303 303 304 304 305 306 307 307 308 308 308 309 309 309 309 310 311 312 314 316 317 317 318 319 319 318 320 322 325 326 326 326 326 326 327 327 327 327 328 328 328 328 328 328 327 326 325 325 325 324 325 327 328 327 328 328 328 328
303 303 303 303 302 302 302 302 302 302 303 304 305 305 306 306 307 307 307 307 307 308 309 311 313 315 315 316 317 318 319 319 321 323 324 325 326 326 326 326 327 327 328 328 328 328 328 327 327 327 327 326 326 326 325 325 327 327 327 328 328 328 327
302 302 303 303 302 302 301 301 300 300 300 301 302 302 303 304 305 305 305 306 306 306 307 308 310 311 313 314 315 316 317 318 319 321 322 324 326 326 326 325 325 326 326 327 327 327 327 327 327 327 327 327 327 328 327 327 327 327 327 327 328 327 327
302 302 302 302 302 302 301 300 300 299 298 299 300 301 301 302 303 303 304 304 304 305 306 306 306 307 309 311 313 314 315 317 318 320 321 323 324 326 326 325 325 325 325 326 326 326 326 326 326 326 326 327 328 328 328 327 327 327 327 327 327 327 327
301 301 301 301 301 301 301 300 299 297 297 298 299 299 299 300 300 301 302 303 303 303 304 304 304 305 306 308 310 312 313 315 317 318 320 321 323 324 325 325 325 325 325 325 325 326 326 326 325 326 326 327 328 328 327 327 327 326 327 327 327 327 327
299 299 300 301 300 300 300 299 298 296 296 297 298 298 298 299 298 299 300 301 301 302 302 302 303 304 305 306 308 310 311 313 315 317 318 320 321 322 323 324 324 325 324 324 324 325 326 326 326 326 326 327 327 327 327 327 326 325 325 326 327 327 327
296 296 297 298 298 298 299 298 296 295 295 296 297 297 298 298 297 297 298 299 300 300 301 301 302 303 304 305 306 308 310 312 314 315 317 318 320 321 322 323 324 324 324 323 322 323 324 324 325 325 326 327 327 326 326 326 326 324 323 324 325 326 327
296 296 295 296 296 296 296 296 295 294 295 296 296 296 296 295 295 296 297 298 298 299 300 300 301 301 302 303 304 306 307 309 311 313 314 316 318 320 321 322 323 324 324 324 323 322 322 323 323 324 326 326 326 326 326 327 327 325 324 325 325 325 326
297 297 296 295 295 295 295 295 294 294 295 296 296 295 294 293 293 294 296 297 297 297 298 299 299 300 301 302 303 304 305 307 308 309 311 313 315 316 318 320 321 322 323 323 323 323 322 322 322 323 324 325 326 325 325 326 327 326 326 326 325 324 324
297 297 296 296 296 295 295 295 295 295 295 295 295 294 293 293 293 294 295 297 296 297 298 298 298 299 300 300 302 303 304 305 306 307 308 309 311 312 313 315 317 319 320 321 323 323 322 322 322 322 322 323 324 325 324 325 326 326 326 325 324 323 323
297 297 296 296 296 296 295 295 295 295 294 294 294 294 293 293 293 293 295 296 296 296 297 298 298 298 299 299 300 301 302 303 304 304 305 306 307 308 310 311 313 315 316 318 320 322 322 322 322 322 321 321 323 325 325 326 327 326 326 326 325 325 325
297 297 297 297 296 296 295 295 295 294 294 294 294 294 294 293 292 293 293 295 295 295 296 297 298 297 298 298 299 300 301 301 302 302 303 303 304 305 306 307 309 311 313 314 317 320 322 323 323 323 323 321 322 324 324 324 325 326 325 325 325 326 326
297 297 297 297 296 296 296 295 295 295 294 294 294 294 293 293 292 292 292 293 294 295 296 297 297 297 297 297 297 298 298 299 300 301 301 302 302 303 304 305 306 307 310 311 313 316 319 321 323 324 324 323 323 323 323 324 325 325 325 325 325 326 327
297 297 297 297 297 296 296 296 295 295 295 294 294 294 293 293 292 292 293 293 293 295 296 296 297 298 298 298 297 297 297 298 298 299 300 301 301 302 302 303 304 305 306 308 310 312 315 318 321 323 324 324 323 323 323 324 324 325 325 326 326 326 326
297 297 297 297 297 297 296 296 296 295 295 294 294 293 293 293 293 292 293 293 293 294 296 296 297 297 298 298 297 296 296 297 297 298 299 299 300 301 301 301 302 303 304 305 307 310 311 314 317 321 323 323 324 323 323 324 324 324 324 325 326 326 326
298 297 297 297 297 297 296 296 296 295 295 294 294 293 293 293 293 293 293 293 293 294 295 296 297 297 297 298 298 297 296 296 296 297 298 298 299 299 300 300 300 301 302 303 305 307 309 311 314 317 321 323 323 323 323 323 323 323 323 323 324 324 324
298 298 297 297 297 297 296 296 296 296 295 295 294 294 293 293 293 293 293 293 293 293 294 295 296 297 297 298 298 297 296 296 296 296 297 297 298 298 299 299 299 300 300 301 303 304 306 309 311 314 318 321 323 323 322 323 323 323 323 323 323 323 323
298 298 297 297 297 297 296 296 296 296 295 295 294 294 293 293 293 293 293 293 294 293 293 294 295 296 297 298 298 297 296 296 296 296 296 296 297 297 298 298 299 299 300 300 302 303 305 307 309 312 314 318 321 322 321 321 322 322 322 321 321 321 322
298 298 298 297 297 297 297 296 296 296 296 295 294 294 294 294 294 293 293 293 294 294 293 293 294 296 297 298 298 297 296 296 296 296 296 296 296 296 297 298 298 299 299 300 301 302 304 305 307 309 311 313 317 320 319 319 320 320 321 320 319 319 320

ECMWFFLT1_850_thetae_075.txt.gz
Theta_e
333 333 332 332 332 332 332 332 331 331 331 331 331 331 331 331 331 331 331 331 331 331 331 331 331 331 331 331 331 331 331 331 331 331 330 330 330 330 330 330 330 330 330 330 329 330 330 330 330 330 330 329 329 329 329 330 330 329 328 328 329 329 330
333 333 332 331 331 331 330 330 330 330 330 330 330 330 330 330 330 331 331 331 331 331 330 330 331 331 330 330 330 330 330 329 329 329 329 329 329 329 329 329 329 329 329 329 329 329 330 329 329 329 329 330 329 328 329 330 330 330 328 328 328 329 329
332 332 332 331 330 329 329 329 329 329 328 328 329 329 329 329 330 330 331 331 331 330 330 329 330 330 329 329 329 329 328 328 328 328 328 328 328 328 328 327 327 328 329 329 329 329 329 329 329 329 329 329 329 329 329 329 329 329 329 329 329 329 329
329 329 330 329 329 328 328 328 328 327 327 327 328 328 328 329 330 330 330 330 330 330 329 329 328 328 327 327 328 328 328 328 328 328 328 328 328 327 327 326 326 326 327 328 328 328 328 329 329 329 329 329 329 329 329 329 328 329 329 329 329 329 328
326 327 326 326 326 325 325 325 326 326 327 327 327 326 326 328 328 329 329 329 329 328 328 327 327 327 327 327 327 327 327 327 327 327 327 327 327 327 326 326 325 325 326 327 328 328 328 328 328 329 329 329 328 328 329 328 327 328 329 329 328 328 328
324 324 323 323 323 322 322 322 322 323 323 323 324 324 326 326 327 326 326 326 326 325 325 325 326 327 328 327 327 327 326 326 325 326 326 325 326 326 325 325 324 324 324 326 327 328 327 327 328 329 328 328 328 328 328 327 326 327 328 328 328 328 328
322 322 322 321 321 320 319 318 319 319 320 320 321 322 323 323 323 323 323 323 323 323 324 325 326 326 327 327 326 325 324 323 323 324 324 324 324 324 324 324 323 323 324 325 327 327 327 327 327 328 328 328 328 328 328 327 327 327 327 326 326 326 328
319 319 319 318 318 318 318 318 318 319 319 319 319 319 320 320 321 321 321 321 322 322 323 323 324 325 325 324 323 322 322 323 324 324 324 324 324 324 324 324 323 324 325 325 326 327 328 327 328 328 328 328 328 328 327 327 327 327 325 324 323 324 326
316 316 315 315 315 316 316 316 317 318 318 318 318 319 319 319 319 319 319 320 320 321 322 322 322 323 323 322 322 322 323 323 323 324 324 324 324 324 325 325 324 324 325 325 326 327 328 328 327 328 328 328 328 328 327 327 327 326 325 324 324 324 326
314 314 314 314 314 314 314 315 316 317 317 317 317 318 319 319 319 319 319 319 319 319 320 320 321 321 322 323 323 323 323 323 324 324 324 324 324 323 324 325 326 325 325 325 326 327 327 328 328 328 328 328 328 327 327 327 327 327 326 325 325 325 326
313 313 312 312 312 312 313 314 315 316 316 316 317 317 318 318 319 319 319 318 318 318 318 319 319 320 321 322 323 322 322 323 324 324 324 324 324 324 324 324 325 325 324 324 326 326 327 328 328 328 328 328 328 327 327 328 328 328 327 326 325 324 324
312 312 311 311 311 311 312 312 313 314 315 316 317 317 318 318 318 317 317 317 317 317 317 317 317 318 318 320 321 321 322 323 323 323 323 323 323 323 324 324 324 324 324 324 325 326 327 327 328 328 328 328 328 328 328 328 328 328 327 327 326 325 323
311 310 310 310 310 310 311 311 312 313 313 314 315 315 316 316 316 317 316 316 316 316 315 316 316 316 317 318 319 320 321 321 321 321 321 321 322 322 323 324 324 324 324 325 325 326 327 327 328 328 328 327 328 329 329 328 328 328 327 327 326 325 323
310 310 310 309 309 310 311 311 311 312 312 312 312 313 314 314 315 315 314 314 314 313 313 314 314 315 316 317 318 319 319 319 319 319 319 319 320 322 323 323 324 325 325 325 326 326 326 327 327 327 327 327 328 329 328 328 328 327 327 327 326 325 323
310 311 311 310 310 310 311 311 311 311 311 311 311 312 312 313 313 313 312 312 312 312 312 312 312 313 314 316 317 318 318 319 319 319 318 318 319 322 323 323 324 325 325 325 326 326 326 327 327 327 327 328 328 328 328 327 327 327 327 327 327 326 325
308 309 309 309 309 309 310 310 310 310 311 311 311 311 311 311 312 311 312 311 311 311 312 311 312 312 313 314 315 316 317 318 318 318 318 318 320 322 324 324 324 325 325 325 325 326 326 326 327 327 328 329 328 328 327 327 327 327 327 327 327 327 326
305 305 306 306 306 306 306 307 307 308 308 309 309 310 310 310 310 310 310 310 310 310 310 310 310 311 311 312 313 314 315 316 317 318 318 318 320 323 324 325 324 325 325 325 325 325 325 325 325 326 327 328 329 329 328 327 327 327 327 327 327 326 327
303 303 303 303 303 303 303 303 304 304 305 305 306 307 307 308 308 308 308 308 307 307 308 308 308 309 310 310 311 312 313 315 316 317 318 318 319 322 324 325 325 325 325 325 326 326 325 325 325 325 326 327 329 329 328 328 328 327 327 326 326 326 326
302 302 302 302 301 300 300 300 301 302 302 303 303 304 304 305 305 305 305 305 305 305 305 306 306 307 308 308 309 310 311 313 314 316 317 318 319 321 323 324 324 325 325 325 326 326 325 325 325 326 327 328 328 328 328 328 328 327 326 325 326 326 326
302 301 301 300 299 297 297 297 298 299 300 300 300 300 300 301 302 302 303 303 303 304 304 305 305 305 306 306 307 308 309 311 312 314 315 316 318 320 322 323 323 324 325 325 326 326 326 325 326 326 327 327 327 328 328 328 327 327 326 326 325 326 326
301 300 299 297 296 295 295 296 296 297 297 297 297 297 297 298 298 299 300 301 302 302 303 303 304 304 304 305 306 307 308 309 310 312 313 315 316 318 320 321 322 322 324 325 325 325 325 326 326 326 327 327 326 327 327 327 327 327 327 326 326 325 326
300 299 297 295 294 294 294 295 295 295 295 295 295 295 295 295 296 296 297 298 299 300 301 301 301 302 302 303 304 305 306 307 308 310 311 312 314 315 317 319 320 321 322 324 324 324 325 325 325 325 326 326 326 326 327 327 326 326 326 326 326 326 326
298 296 295 294 294 294 294 294 294 294 294 294 294 294 294 294 294 295 295 295 296 297 298 299 300 300 301 302 303 304 305 306 307 307 308 310 312 313 315 316 318 320 321 322 323 324 325 325 325 325 325 325 326 326 326 326 326 326 326 325 326 326 327
296 295 295 295 295 294 294 294 294 294 294 294 294 294 294 294 294 294 294 294 295 296 297 298 298 299 300 300 301 302 303 304 305 306 306 308 309 311 313 314 316 318 319 320 322 323 324 324 324 324 325 325 325 326 326 326 326 326 325 325 325 326 326
295 295 295 295 294 294 294 294 294 294 294 294 294 294 294 294 294 294 294 293 294 295 297 297 298 298 299 299 300 301 301 302 303 304 305 306 307 308 310 312 313 315 316 317 319 321 322 323 323 323 323 323 324 325 326 326 326 326 326 326 326 326 326
295 294 294 294 294 294 294 294 294 294 294 293 293 294 294 294 294 294 293 293 293 294 296 297 297 298 298 298 298 299 300 301 301 302 303 304 305 306 307 309 310 311 312 313 316 318 320 322 322 322 322 322 322 323 325 326 326 326 326 326 327 326 326
295 294 294 294 294 294 294 294 293 293 293 293 293 293 294 294 294 294 293 293 293 294 295 296 296 297 297 298 298 298 298 299 300 301 301 302 303 304 304 306 307 308 309 310 312 314 317 319 321 322 322 322 322 322 324 325 326 326 326 326 326 326 326
295 295 294 294 294 294 293 293 293 293 293 293 293 293 293 294 294 294 293 293 294 294 294 295 296 296 297 297 297 297 297 298 298 299 300 300 301 302 302 304 304 305 306 307 308 309 312 315 318 320 321 321 322 322 322 323 325 326 326 326 325 325 325
296 295 295 294 294 294 294 293 293 293 293 293 293 293 293 293 293 293 293 293 294 294 294 295 295 296 296 297 297 297 297 297 297 298 298 299 300 300 301 301 302 303 304 305 306 307 308 311 313 316 319 321 321 321 321 322 323 324 325 325 325 325 325
296 296 295 295 295 294 294 293 293 293 293 293 293 293 293 293 293 293 293 293 294 294 294 295 295 295 296 297 297 296 296 296 296 297 297 298 298 299 299 300 300 301 302 303 304 305 306 308 310 312 315 319 321 321 321 321 322 323 324 325 325 325 325
296 296 296 295 295 294 294 294 293 293 293 293 293 293 293 293 293 293 293 293 293 294 295 295 296 296 296 297 297 297 296 296 296 296 296 297 297 298 298 299 299 300 300 301 302 303 304 306 308 310 312 316 319 321 321 322 322 323 324 325 325 325 325
297 296 296 296 295 295 294 294 294 293 293 293 293 293 293 293 293 293 294 293 293 293 294 295 296 296 296 297 297 296 296 296 295 295 295 295 296 297 297 298 298 298 299 299 300 301 302 304 306 307 309 312 315 318 320 321 321 322 323 324 324 325 325
297 297 297 296 296 295 294 294 294 293 293 293 293 293 293 293 293 293 294 294 293 293 293 295 296 296 296 297 297 296 296 295 295 295 295 295 295 296 297 297 297 298 298 298 299 300 301 302 304 306 307 309 312 316 319 320 321 322 323 323 323 324 324
297 297 297 297 296 295 295 294 294 294 294 293 293 293 293 293 293 293 294 294 293 293 293 295 296 296 295 296 296 296 296 295 295 294 294 294 295 296 296 296 297 297 298 298 299 300 301 302 303 305 306 308 310 313 316 319 321 322 322 323 323 323 323
297 297 297 297 296 295 295 294 294 294 294 294 293 293 293 293 293 293 293 294 294 293 293 294 295 295 295 295 295 296 295 295 294 294 294 294 295 296 296 296 296 297 297 298 299 299 300 301 302 304 305 307 309 311 314 317 319 321 321 321 322 322 322
297 297 297 297 296 295 295 294 294 294 294 294 293 293 293 293 293 293 293 293 294 293 293 294 294 294 294 294 295 296 295 294 294 294 293 294 295 295 296 296 296 296 297 298 298 299 300 301 301 303 304 305 307 310 313 315 317 318 319 319 319 320 321
297 297 297 297 296 295 295 294 294 294 294 294 294 293 293 293 293 293 293 293 294 293 293 293 294 294 294 294 295 296 295 294 294 293 293 294 295 295 295 296 296 296 297 298 298 299 299 300 300 302 303 305 306 308 310 311 312 313 316 317 317 317 318

ECMWFFLT1_850_thetae_078.txt.gz
Theta_e
331 331 332 331 331 331 330 330 330 330 329 329 328 328 328 328 329 329 329 329 329 330 330 330 330 330 329 329 329 329 329 328 328 327 326 326 326 327 328 328 326 325 325 326 326 326 327 328 328 328 328 328 327 328 328 328 329 329 328 329 330 331 330
329 330 330 330 331 331 330 330 329 329 329 328 327 327 326 327 327 327 327 327 328 329 329 329 329 329 329 328 328 328 327 327 327 327 326 326 326 327 329 327 327 326 325 325 325 325 325 326 326 326 327 327 327 327 327 327 328 328 329 328 329 331 330
328 328 329 329 329 329 329 329 329 328 328 327 326 325 325 325 325 325 325 325 326 327 327 327 327 327 327 327 327 327 327 327 327 327 327 326 326 326 325 326 328 328 326 324 325 325 325 326 326 326 326 327 327 327 327 327 327 328 329 328 328 330 330
326 327 327 327 328 328 328 327 326 325 324 324 324 324 324 324 324 324 323 324 325 325 325 325 325 325 325 325 325 326 326 327 326 326 326 326 325 325 324 324 327 326 325 324 324 324 325 325 325 325 326 326 327 327 327 327 327 328 328 328 328 329 330
325 326 326 327 327 326 325 324 323 322 321 321 321 322 322 322 322 322 322 322 323 323 322 322 323 323 323 323 324 324 325 325 325 325 324 323 323 323 323 324 324 323 323 324 324 324 324 324 324 324 324 326 328 328 327 327 327 328 328 328 328 329 329
324 325 326 325 325 324 323 322 321 321 320 319 319 320 320 319 319 320 320 320 320 320 321 321 321 321 322 322 322 323 324 324 324 324 323 322 323 324 323 323 323 323 324 324 325 324 323 324 326 326 325 326 328 328 327 327 327 327 328 328 328 328 329
321 321 321 321 320 320 320 320 319 318 318 317 318 318 318 318 318 318 318 318 318 318 319 319 319 319 320 321 322 322 322 323 323 322 322 322 323 324 323 323 323 322 322 322 324 324 324 325 326 326 326 327 328 328 327 327 327 327 327 327 328 328 328
317 317 317 317 317 317 317 316 316 316 315 316 316 316 317 316 316 316 316 317 317 317 317 317 317 317 318 320 321 321 321 322 322 322 322 322 322 322 322 323 323 322 322 322 323 324 324 324 325 324 325 327 328 328 328 327 327 327 327 327 328 328 327
314 314 314 314 314 314 314 314 314 314 314 315 315 315 315 315 315 315 316 316 315 315 315 315 315 315 316 318 320 320 320 319 320 321 321 321 321 321 321 321 321 322 323 323 323 323 323 324 325 324 325 327 328 328 328 327 327 327 327 327 328 328 327
312 312 312 312 312 312 312 312 312 313 313 313 314 314 314 314 314 314 314 313 312 312 311 311 312 312 314 316 318 319 318 317 318 319 320 320 320 320 320 319 319 321 322 323 324 324 324 324 323 323 324 326 327 328 328 327 327 327 327 327 328 327 327
311 310 310 310 310 311 311 311 311 312 312 311 311 312 312 313 313 312 312 311 311 310 311 311 311 311 312 312 314 315 316 317 318 319 319 319 319 318 318 318 317 318 320 321 322 324 324 324 324 323 324 325 326 327 327 327 327 327 327 327 327 327 326
310 309 309 309 309 310 311 311 311 311 311 311 310 310 311 312 312 312 311 311 311 311 311 311 312 312 312 312 312 313 314 315 317 318 319 319 318 318 318 318 316 316 319 322 322 323 324 325 325 325 324 325 326 326 326 327 327 327 327 328 327 327 326
309 309 309 309 309 310 311 311 311 311 311 311 310 310 311 311 311 311 311 311 311 311 311 310 310 310 310 311 311 312 313 313 315 316 317 318 318 318 318 318 316 316 319 322 323 324 324 325 325 325 326 326 326 326 327 327 328 328 328 328 327 327 327
310 310 309 309 310 310 310 310 310 310 310 310 310 310 310 310 310 310 309 309 309 309 308 308 308 308 309 309 310 310 311 312 313 314 315 316 317 318 318 318 317 317 319 322 324 324 324 324 325 325 326 326 326 326 327 327 327 328 327 327 328 327 327
308 308 308 308 308 308 308 307 307 307 307 307 307 308 308 308 307 307 307 307 307 306 306 306 306 306 307 307 308 308 309 310 311 312 313 315 316 317 318 317 317 318 319 321 323 324 324 324 324 325 325 325 326 326 327 327 327 327 327 327 328 328 327
305 305 305 305 305 305 304 304 304 304 304 304 304 304 304 304 304 304 304 303 303 303 304 304 304 304 305 305 306 307 307 308 309 309 311 312 314 316 317 317 317 318 319 320 321 323 323 324 324 325 325 325 325 326 326 327 326 326 326 327 327 328 327
303 304 303 303 302 301 301 301 301 301 300 300 300 299 299 299 299 299 299 299 299 300 300 301 301 301 302 302 303 304 305 306 307 307 309 310 311 313 314 315 316 317 318 319 320 321 323 324 324 325 325 325 325 325 325 325 326 326 326 326 327 327 326
301 300 300 299 298 298 297 297 297 297 297 297 296 296 296 296 296 296 296 296 296 297 297 297 298 298 299 300 301 302 303 305 305 306 307 307 308 309 310 311 313 315 316 318 319 320 321 322 324 325 324 324 325 325 325 324 325 325 326 327 327 327 326
297 297 296 296 296 296 296 296 296 296 296 295 295 295 295 295 295 295 295 295 295 295 296 296 296 297 297 298 299 301 302 303 304 305 305 306 306 306 307 308 310 312 314 315 316 318 318 319 321 323 324 324 324 324 324 324 325 325 325 326 327 327 327
295 295 295 295 295 295 295 295 295 295 295 295 295 295 295 295 295 295 295 295 295 295 295 295 296 296 297 298 298 299 300 301 302 303 304 304 305 305 306 307 308 310 312 313 313 314 315 316 318 320 321 322 324 324 324 324 325 325 325 325 325 326 327
295 295 295 295 295 295 295 295 295 295 295 295 295 295 295 295 295 295 295 294 294 295 295 295 295 296 296 297 298 298 299 300 301 302 303 303 303 304 305 305 307 308 309 310 311 311 312 313 315 317 318 320 322 323 324 324 324 324 324 325 325 325 326
295 295 295 295 295 295 295 295 295 295 295 295 295 295 295 295 295 294 294 294 294 294 294 294 295 296 296 297 297 297 298 298 299 300 301 302 302 303 303 304 305 306 307 308 309 309 310 310 311 313 316 318 320 322 323 324 324 323 323 324 325 325 325
295 294 294 294 294 294 294 294 294 294 294 294 294 294 294 294 295 294 294 294 294 294 293 294 295 295 296 296 296 296 297 297 298 298 299 300 301 301 302 303 303 304 305 306 307 308 309 310 310 311 313 315 317 319 321 322 323 323 323 323 324 325 325
294 294 294 294 294 294 294 294 294 294 294 294 294 294 294 294 294 294 294 294 294 293 293 294 294 294 295 296 296 296 296 296 296 297 297 298 299 300 300 301 302 303 304 305 306 307 308 309 311 312 313 314 314 315 317 319 321 322 322 323 323 324 324
294 294 294 294 293 294 294 294 294 294 294 294 294 294 294 294 294 294 294 294 294 293 293 293 294 294 294 295 296 296 295 295 296 296 296 296 297 298 299 300 301 302 302 303 304 305 306 307 309 310 312 314 315 315 315 317 319 321 322 322 323 323 324
294 294 293 293 293 293 293 294 293 294 293 294 294 294 294 294 294 294 294 294 293 293 293 293 294 294 294 294 295 295 295 294 294 295 295 295 296 297 297 298 299 300 301 302 302 303 305 306 307 308 310 312 314 315 316 317 318 319 321 322 322 322 323
294 294 293 293 293 293 293 293 293 293 293 293 294 294 293 294 294 294 294 293 293 293 293 294 294 294 294 294 295 295 294 294 294 294 295 295 295 296 296 297 298 298 299 300 301 302 302 304 305 306 307 309 311 314 315 316 318 319 320 321 322 322 323
294 293 293 293 293 293 293 293 293 293 293 293 293 293 293 293 293 293 293 293 293 293 293 294 294 295 294 294 295 294 294 294 294 294 294 294 295 296 296 297 297 297 298 298 299 300 300 301 303 304 306 307 309 311 312 314 316 318 320 321 322 323 323
294 293 293 293 293 293 293 293 293 293 293 293 293 293 293 293 293 293 293 293 293 293 293 294 295 295 294 294 294 294 294 294 294 293 293 294 295 296 296 296 296 297 297 297 298 298 298 299 301 302 304 306 307 309 311 311 313 316 318 320 322 323 323
294 294 293 293 293 293 293 293 293 293 293 293 293 293 293 293 293 293 293 293 293 293 293 294 295 295 294 294 294 294 293 293 293 293 293 294 295 296 296 296 296 296 297 297 297 297 297 298 299 300 302 304 306 308 309 310 312 314 316 319 321 322 323
295 294 293 293 293 293 293 293 293 293 293 293 293 293 292 292 293 293 293 293 293 293 293 294 294 294 294 294 294 293 293 293 292 292 293 294 295 296 296 296 296 296 296 296 297 297 297 298 299 299 300 302 304 306 308 309 311 313 315 318 320 322 323
296 295 294 293 293 293 293 293 293 293 293 293 293 292 292 292 293 293 293 293 293 293 293 293 294 294 294 294 294 293 293 293 292 292 293 294 295 295 296 296 296 296 296 296 297 297 297 298 299 299 300 301 302 304 306 307 309 312 314 317 319 320 322
296 295 294 294 293 293 293 293 293 293 293 293 293 292 292 292 292 292 293 293 293 293 293 293 293 293 294 294 294 293 293 292 292 292 293 294 294 295 295 295 295 295 296 296 296 297 297 298 299 300 300 301 301 302 303 305 307 310 313 315 317 319 321
296 296 295 294 293 293 293 293 293 293 293 293 293 292 292 292 292 292 292 292 293 293 293 293 293 293 294 294 293 293 293 292 291 292 293 293 294 294 295 295 295 295 295 295 296 296 297 298 299 299 300 301 301 302 303 304 306 308 311 314 316 318 319
296 296 295 294 293 293 293 293 293 293 293 293 293 292 292 292 292 292 292 292 293 293 293 293 292 293 293 293 293 293 292 292 292 292 292 293 293 294 294 294 294 294 294 295 295 296 297 297 298 299 299 300 301 302 303 304 305 306 308 311 313 314 315
297 296 296 294 293 293 293 293 293 293 293 293 293 292 292 292 292 292 292 292 292 293 293 293 293 293 293 293 292 292 292 291 292 292 292 292 293 293 293 293 293 294 294 294 295 296 296 297 297 298 298 300 301 302 302 303 304 305 306 308 310 310 310
297 296 296 295 294 293 293 293 293 293 293 293 293 292 292 292 292 292 292 292 292 292 293 293 293 293 292 292 292 292 291 291 292 292 292 292 292 292 293 293 293 293 294 294 294 295 296 296 297 297 298 299 300 300 301 302 303 303 304 305 306 307 306

ECMWFFLT1_850_thetae_084.txt.gz
Theta_e
328 328 328 328 329 329 328 328 327 326 326 326 325 324 323 323 322 322 322 321 321 320 320 320 319 319 319 319 320 321 321 322 323 324 325 325 326 327 327 327 327 327 326 326 327 327 327 328 328 327 327 327 328 327 327 327 328 330 330 330 328 328 328
325 326 326 327 328 327 327 326 325 324 324 323 322 321 320 320 319 319 319 318 318 317 316 315 314 313 312 313 315 318 319 320 321 322 324 325 325 325 325 326 326 326 326 326 327 326 326 327 327 327 327 327 327 328 328 327 328 328 329 330 330 329 329
323 324 325 325 326 325 324 323 323 322 321 319 319 317 317 317 317 315 314 314 313 312 312 311 311 311 311 311 313 315 317 318 319 320 321 322 323 323 323 324 325 326 326 326 326 326 326 326 326 327 327 327 327 327 327 327 328 328 327 328 329 330 329
321 322 322 323 323 322 321 320 320 319 317 316 315 315 315 314 313 311 311 311 311 311 311 311 311 311 311 311 312 312 314 315 316 317 318 318 319 319 320 322 323 324 325 325 325 325 326 326 326 327 327 327 326 326 327 327 328 328 328 328 328 330 330
319 319 319 319 319 319 319 318 317 317 314 313 312 313 313 312 311 311 311 311 310 310 310 309 310 310 309 310 311 311 312 312 313 314 315 316 317 317 318 319 320 321 322 323 324 324 324 325 325 325 326 326 327 327 327 328 328 328 328 329 329 330 331
317 317 316 316 316 316 316 316 316 315 313 311 311 311 311 311 311 311 310 309 308 307 307 307 307 307 307 308 308 309 310 311 312 313 313 314 315 316 317 317 318 318 319 320 321 322 322 322 323 324 324 324 326 326 326 327 327 328 328 329 329 330 331
316 315 315 314 314 314 314 314 314 313 311 310 310 311 311 311 310 308 307 305 304 304 303 303 303 303 303 304 305 306 307 308 310 311 312 313 313 315 315 316 317 317 317 318 318 319 320 320 321 322 322 323 324 325 326 326 327 328 328 329 329 329 330
314 313 313 313 312 312 312 312 312 312 311 310 310 310 310 308 306 304 302 301 300 300 299 299 299 299 299 299 300 301 302 304 305 307 308 309 311 312 313 314 315 315 315 316 316 317 317 318 319 320 321 322 322 324 325 326 327 327 327 328 328 329 329
312 311 312 311 311 312 312 312 311 311 310 310 309 308 305 303 301 300 299 298 297 297 297 297 297 297 297 297 297 297 298 299 301 303 303 305 307 308 308 310 311 312 313 314 314 315 316 316 317 318 319 319 319 320 322 323 325 326 326 327 328 328 329
310 311 311 311 311 311 311 310 310 309 308 307 305 302 300 298 297 297 297 297 297 296 297 297 297 297 296 296 296 296 296 296 298 299 300 302 305 305 307 308 308 310 310 310 311 313 314 315 316 316 317 317 317 317 318 320 321 323 325 326 326 327 328
310 310 311 310 310 310 309 308 307 306 304 302 299 298 297 296 296 296 296 296 296 296 296 296 296 296 296 296 296 295 296 295 296 296 297 298 300 302 304 305 306 308 307 306 307 309 311 311 312 314 315 316 315 315 315 316 317 320 322 323 324 326 326
309 308 309 308 307 307 306 304 302 301 299 297 296 296 296 296 296 296 296 296 296 296 296 296 296 295 295 295 295 295 295 295 295 296 295 295 296 297 299 301 304 305 304 302 304 306 308 308 308 310 311 313 313 313 313 313 314 318 320 320 322 324 325
307 306 306 305 303 302 300 299 297 297 296 296 296 295 295 295 295 295 295 295 295 295 295 295 295 295 295 295 295 295 295 294 295 295 295 295 295 296 297 300 303 303 302 301 302 304 306 306 306 306 307 309 310 310 311 311 311 315 318 318 319 322 323
304 303 302 300 299 297 297 296 296 295 295 295 295 295 295 295 295 295 295 295 295 295 295 295 295 295 295 294 294 294 294 294 294 294 295 295 295 295 296 299 302 301 300 300 301 303 304 304 304 304 305 306 306 307 308 309 309 312 316 317 317 319 321
300 299 298 297 296 296 295 295 295 295 295 295 295 295 295 295 295 295 295 295 295 295 295 295 295 294 294 294 294 294 294 294 294 294 294 294 295 296 296 298 299 299 299 299 300 301 302 302 302 302 303 304 304 305 305 306 307 308 311 315 316 318 319
297 296 296 296 295 295 295 295 295 295 295 295 295 295 295 295 295 295 295 295 295 295 294 294 294 294 294 294 294 294 294 294 294 294 294 295 296 297 298 299 299 299 299 299 299 300 300 300 300 301 301 302 302 303 303 304 305 305 307 310 312 314 316
296 295 295 295 295 295 295 295 295 295 295 295 295 295 295 294 295 295 295 295 295 294 294 294 294 294 294 294 294 294 294 294 294 295 295 296 297 298 299 300 300 299 299 299 299 299 299 299 299 300 300 301 301 301 302 302 303 304 305 306 308 310 312
295 295 295 295 295 295 295 295 295 294 295 295 294 294 294 294 294 294 294 295 295 294 294 294 294 294 294 294 294 294 294 294 295 296 297 297 297 298 299 300 300 299 299 299 298 298 298 298 299 299 299 300 300 300 301 301 302 303 304 305 306 308 309
295 295 295 295 294 294 294 294 294 294 294 294 294 294 294 294 294 294 294 294 294 294 294 294 294 294 294 294 294 294 294 294 295 296 297 297 298 298 299 299 299 299 299 298 298 297 297 298 298 298 298 298 299 299 300 301 301 301 303 304 305 306 308
295 294 294 294 294 294 294 294 294 294 294 294 294 294 294 294 294 294 294 294 294 294 294 294 294 294 294 294 294 294 294 295 296 297 298 298 298 298 298 299 299 298 298 298 297 297 297 297 297 297 297 297 297 298 299 300 301 301 302 303 304 305 307
294 294 294 294 294 294 294 294 294 294 294 294 294 294 294 294 294 294 294 294 294 294 294 294 294 294 294 294 294 295 295 296 297 297 298 298 298 298 298 298 298 298 297 297 297 297 297 296 296 296 297 297 297 297 298 299 300 301 301 302 303 304 305
294 294 294 294 294 294 294 294 294 294 294 294 294 294 294 294 294 294 294 294 295 295 293 293 294 293 294 294 294 295 296 296 297 297 298 298 298 298 298 298 297 297 297 296 296 296 296 296 296 296 297 297 297 297 297 298 299 300 300 301 302 303 304
294 294 294 294 294 294 294 294 294 294 294 294 294 294 294 294 294 294 294 295 296 295 294 293 294 293 294 294 294 295 296 296 297 297 298 298 298 298 297 297 297 296 296 296 295 295 296 296 297 297 297 297 297 297 297 297 298 299 299 300 301 302 303
294 293 294 293 293 293 293 294 294 294 294 293 293 293 293 293 293 293 293 294 295 295 293 293 293 293 294 294 294 295 296 296 297 298 298 298 297 297 297 296 296 296 296 296 296 295 295 296 297 297 297 298 298 298 297 297 298 298 299 299 300 301 302
293 293 293 293 293 293 293 293 293 293 293 293 293 293 293 293 293 293 293 294 294 294 293 293 293 293 294 294 294 295 296 297 297 297 297 297 297 296 296 296 296 296 295 295 295 295 295 296 296 297 297 298 298 298 298 297 298 298 298 299 299 300 301
293 293 293 293 293 293 293 293 293 293 293 293 293 293 293 293 293 292 293 294 294 293 293 293 293 293 294 294 294 295 296 297 297 297 297 297 296 296 296 296 296 296 295 295 295 295 294 295 296 297 297 298 298 298 298 298 298 298 298 299 299 299 300
293 293 293 293 293 293 293 293 293 293 293 293 293 293 292 292 293 292 293 294 294 293 293 293 293 293 294 294 294 295 296 297 297 297 296 296 296 296 296 295 295 295 295 295 295 294 294 295 296 296 297 297 297 298 298 298 298 297 298 299 299 299 300
293 293 293 293 293 293 293 293 293 293 293 292 292 292 292 292 292 292 292 293 294 293 293 293 293 293 293 294 295 296 296 297 296 296 296 296 296 296 295 295 295 295 295 295 294 294 295 295 296 295 295 296 296 297 297 297 297 297 298 299 300 300 301
293 293 293 293 293 293 293 293 293 293 292 292 292 292 292 292 292 292 292 292 293 293 293 293 293 293 293 293 295 296 296 296 296 296 296 296 296 296 295 295 294 294 294 294 294 294 295 295 295 295 295 295 296 297 297 297 297 298 298 300 301 301 301
293 293 293 293 293 293 293 293 293 293 292 292 292 292 292 292 291 292 292 292 293 293 293 293 293 293 293 293 294 296 295 296 296 296 296 296 295 295 295 295 294 293 293 294 294 294 295 295 295 295 295 295 296 296 297 297 298 298 298 299 301 301 301
294 293 293 293 293 293 293 293 293 293 292 292 292 292 292 292 291 291 292 292 292 293 293 293 292 293 293 292 294 295 295 295 296 296 296 295 295 295 295 294 293 293 293 293 294 294 294 295 295 295 294 294 295 296 297 298 298 298 298 299 300 301 301
294 293 293 293 293 293 293 293 293 293 293 293 292 292 292 292 291 291 291 292 292 292 292 292 292 293 293 292 293 294 295 294 295 296 295 295 295 295 294 295 294 292 293 293 293 294 294 294 295 294 294 294 294 295 296 297 297 297 297 298 299 300 300
294 293 293 293 293 293 293 293 292 292 293 293 293 292 292 292 292 291 291 291 292 292 292 292 292 292 292 292 292 293 294 294 294 296 295 295 295 295 294 294 294 292 292 293 293 293 293 294 295 294 294 295 294 294 296 296 296 297 297 297 298 299 299
293 293 293 293 293 293 293 293 293 293 293 293 292 292 292 293 293 292 292 291 291 291 291 292 292 292 292 292 292 292 293 292 293 295 295 295 295 295 294 294 293 292 292 292 292 292 292 293 294 295 295 295 295 294 295 296 296 297 297 297 298 298 298
293 293 293 293 293 293 293 293 293 293 293 293 292 292 293 294 295 295 294 293 292 292 292 291 291 291 292 292 292 292 292 292 292 294 295 295 294 294 294 293 293 292 292 292 293 293 292 292 294 295 295 295 296 296 296 296 297 297 298 297 297 297 297
293 293 293 293 293 293 293 293 293 293 294 295 295 295 295 295 296 296 296 295 294 293 293 293 291 290 291 292 292 292 292 292 292 293 295 295 294 294 294 293 293 292 292 292 293 293 293 292 293 294 295 295 296 296 296 297 297 297 297 298 297 296 297
293 293 293 293 294 293 293 294 295 294 296 297 297 297 296 296 297 296 296 296 296 295 295 294 292 291 291 291 292 292 292 292 292 292 294 294 294 294 294 293 293 293 293 293 293 293 293 293 293 293 295 295 295 295 295 296 297 297 297 298 297 297 296

ECMWFFLT1_850_thetae_087.txt.gz
Theta_e
331 330 329 328 329 329 327 327 327 327 327 326 325 323 322 321 320 319 318 317 316 315 317 318 316 314 313 315 316 318 319 320 321 321 322 324 324 325 326 326 326 326 326 328 328 328 328 328 328 328 328 328 328 329 329 329 329 330 330 330 330 330 331
327 327 326 326 327 327 326 325 325 325 324 323 321 319 318 317 316 316 315 313 312 312 314 314 312 312 312 313 315 315 316 316 317 318 320 321 321 322 322 322 323 324 325 326 327 327 327 327 328 327 328 328 328 328 328 328 329 329 329 330 330 330 330
325 324 324 325 325 324 324 324 323 323 321 319 317 316 315 315 315 314 313 311 311 311 311 311 310 310 310 313 313 311 311 312 313 314 316 318 318 319 319 319 321 322 323 324 324 325 325 325 326 327 327 327 327 327 327 327 328 328 328 329 330 330 330
323 323 323 323 324 323 322 322 321 319 317 316 315 314 314 314 313 312 310 309 308 308 308 308 307 306 308 311 310 308 309 310 310 312 314 315 316 316 317 318 318 320 320 321 322 322 322 323 323 324 325 325 325 325 326 326 327 327 327 328 328 329 330
322 322 321 321 321 321 320 319 318 317 315 314 314 314 313 312 310 307 306 306 305 304 304 303 303 302 304 305 304 305 306 307 309 310 311 312 313 314 315 316 316 317 318 319 319 319 320 320 321 321 322 322 323 323 324 325 325 326 326 326 327 328 330
320 319 319 319 319 319 318 318 317 315 314 313 313 312 310 306 304 303 302 301 300 299 299 299 299 299 299 299 299 301 302 302 304 305 307 309 311 312 312 313 313 314 315 316 317 317 317 318 318 319 319 319 320 320 321 322 323 324 325 325 327 327 328
317 317 317 317 317 317 317 316 315 314 313 312 311 309 305 302 300 299 298 298 298 298 298 298 298 298 298 298 298 298 298 298 298 299 301 304 305 308 309 309 311 312 313 313 313 314 314 315 316 316 317 317 317 318 318 319 320 322 323 324 325 326 327
315 315 315 315 315 315 315 314 313 313 312 310 306 302 300 298 298 297 297 297 297 297 297 297 297 297 297 299 298 297 297 299 299 297 299 302 302 304 306 307 309 311 311 310 310 311 311 312 313 314 314 314 315 315 316 316 317 319 320 321 321 322 325
314 314 313 313 314 313 313 312 311 311 308 304 300 298 297 297 296 296 296 296 296 296 296 296 296 296 296 298 297 296 297 300 302 300 300 303 303 304 305 305 308 310 309 307 306 308 310 310 311 311 311 311 312 313 313 314 315 316 317 318 318 319 320
313 313 312 312 312 311 311 310 309 307 302 298 297 296 296 296 296 296 295 295 296 296 296 296 296 296 296 296 296 296 297 301 306 304 301 301 302 303 305 306 308 309 307 305 305 306 308 309 309 309 309 309 310 311 311 312 312 312 313 314 315 316 316
312 311 311 311 311 311 310 308 304 300 297 297 297 296 296 296 295 295 295 295 295 295 296 295 295 295 296 295 295 295 296 300 304 303 300 300 300 302 305 307 308 308 306 305 305 306 307 307 307 307 307 307 308 309 309 309 309 310 310 309 309 310 311
310 310 311 311 310 308 306 302 298 296 297 297 297 298 298 297 297 297 296 296 295 295 295 295 295 295 295 295 295 295 296 298 301 302 302 302 300 300 304 306 306 306 305 305 305 305 305 306 305 305 306 306 306 307 307 307 308 308 308 308 305 302 302
310 310 309 308 305 302 300 298 296 296 297 297 297 298 299 299 298 298 298 297 296 295 295 295 295 295 295 295 295 295 295 297 300 301 302 303 302 301 303 305 305 304 303 304 304 304 304 304 303 303 303 304 305 305 305 305 306 306 305 306 306 303 299
307 306 304 301 298 298 297 297 296 297 297 298 298 298 298 299 299 298 298 296 295 295 295 295 295 295 295 295 295 295 295 296 299 300 301 303 304 303 304 305 304 303 303 303 302 302 303 302 301 300 301 302 303 303 304 304 304 304 303 302 304 304 300
300 299 298 297 297 296 296 296 296 296 296 298 298 298 298 299 300 299 297 295 295 295 294 294 295 295 295 296 297 297 297 297 299 301 302 303 303 303 304 303 303 303 302 302 302 301 301 300 299 298 299 300 301 301 302 303 303 303 303 301 301 303 301
297 297 297 297 296 296 295 296 297 297 297 297 297 298 298 298 299 299 297 295 294 294 294 294 295 294 294 297 299 299 299 300 301 302 303 303 302 303 303 303 302 302 301 301 301 300 299 298 298 298 298 299 299 299 300 301 301 302 302 302 302 303 303
296 296 296 296 296 295 295 296 297 297 297 297 297 297 298 298 298 298 297 295 294 294 294 294 294 294 294 296 299 300 300 301 303 303 303 302 302 302 302 302 302 301 301 300 300 299 298 298 298 298 298 298 298 298 299 299 300 300 301 302 302 303 304
296 296 295 295 295 295 295 296 296 297 297 297 297 296 297 299 299 298 296 295 294 294 294 294 294 294 294 294 298 300 300 301 303 303 302 302 302 302 301 301 301 300 300 299 299 298 297 297 297 297 297 297 298 298 298 298 299 299 300 301 302 302 303
295 295 295 295 294 294 294 294 295 296 297 296 295 295 295 297 298 297 295 294 294 294 294 294 294 294 295 294 296 299 300 301 303 302 302 302 302 301 301 300 300 299 299 298 298 297 297 297 296 296 296 297 297 297 297 298 298 299 299 300 300 301 302
295 294 295 294 294 294 294 294 294 295 296 295 295 295 295 296 296 295 294 293 294 294 294 294 294 294 295 294 295 300 301 302 303 302 301 302 301 301 300 300 299 299 298 297 297 297 297 296 296 296 296 296 297 297 297 297 298 298 298 299 299 300 301
294 294 294 294 294 294 294 294 294 294 294 294 295 296 297 297 297 295 294 293 293 294 293 294 294 294 295 294 295 300 302 302 302 302 301 301 300 300 299 299 299 298 298 297 296 296 296 295 295 295 296 296 296 296 296 297 297 298 298 299 299 300 300
294 294 294 294 294 294 294 294 294 294 294 294 295 296 298 299 299 297 295 294 293 293 293 293 294 293 294 294 295 300 302 301 301 301 301 300 300 299 299 298 298 298 297 297 296 296 296 295 295 295 296 296 296 296 296 296 297 298 298 298 299 299 300
295 295 295 294 294 294 294 294 294 294 293 293 294 295 297 299 299 297 296 294 293 293 293 293 293 293 294 294 295 299 301 301 301 301 300 300 299 299 298 298 298 297 297 297 296 296 295 295 295 296 296 296 296 296 296 297 297 297 297 298 298 298 299
297 296 295 295 294 294 294 294 294 293 294 293 293 294 296 297 297 297 296 293 292 293 293 293 294 293 294 295 295 299 300 300 300 300 299 299 299 298 298 297 297 297 297 297 297 296 295 295 295 296 296 296 296 296 296 296 297 297 297 297 297 298 298
299 298 297 296 295 295 294 294 294 294 294 294 293 294 295 296 298 300 297 293 292 293 293 293 294 293 294 294 296 298 300 300 300 300 299 299 298 298 298 297 297 297 296 296 296 295 294 295 295 295 296 296 296 296 296 296 296 296 297 297 297 298 298
299 299 298 297 296 296 295 295 294 294 294 293 293 293 294 295 298 301 300 295 292 293 293 293 293 293 294 294 296 299 300 300 299 299 299 298 298 298 297 297 296 296 296 296 295 294 294 294 295 295 296 296 296 296 296 296 296 296 297 297 297 297 297
299 299 298 297 297 297 296 295 295 296 295 294 294 294 294 294 296 300 301 298 293 292 293 293 293 293 294 294 296 298 299 299 299 299 299 298 298 297 297 296 296 296 295 295 294 293 294 294 295 295 295 296 296 296 296 296 296 296 296 296 296 296 296
299 299 298 298 297 296 296 297 297 297 296 296 296 295 294 294 294 297 300 300 295 292 292 293 292 293 293 295 296 298 299 299 299 299 298 298 298 297 297 296 296 295 295 294 293 293 294 294 295 295 295 295 296 296 296 296 296 296 297 296 296 296 296
299 299 298 298 297 296 296 298 297 297 297 296 296 296 295 295 294 294 296 299 297 293 291 292 292 292 293 294 296 298 298 298 299 299 298 298 297 297 297 296 296 295 294 293 293 293 293 294 294 295 295 295 295 296 297 297 297 297 297 297 297 296 296
299 299 299 299 297 296 298 298 298 298 298 298 297 297 296 295 294 292 292 295 297 295 292 291 292 292 292 293 294 297 298 298 298 298 298 297 297 297 296 296 295 295 294 293 293 293 293 293 294 295 295 295 295 295 296 297 297 297 297 297 297 296 296
299 299 299 298 297 297 298 298 298 299 299 298 299 299 298 297 296 294 291 291 294 295 293 291 291 292 292 292 293 295 297 296 297 298 298 297 297 297 296 296 296 295 294 293 293 294 293 293 293 294 295 295 294 295 295 295 296 297 297 297 297 296 296
300 299 299 298 297 298 298 298 299 299 299 299 299 298 298 299 297 296 295 292 292 293 292 291 291 291 292 292 292 294 295 295 296 297 298 297 297 297 296 296 296 295 294 293 293 294 294 293 293 294 294 294 294 295 295 295 295 296 296 297 296 296 296
299 299 298 298 298 298 298 299 299 299 299 299 299 298 298 298 298 297 297 296 293 292 292 292 291 291 291 292 292 293 294 293 294 296 298 297 296 296 296 296 296 295 294 293 293 294 294 294 294 294 294 294 294 294 295 295 295 295 296 296 296 296 296
299 298 297 297 298 298 299 299 300 299 299 298 299 299 300 299 299 299 298 298 297 295 293 293 292 291 291 291 291 292 292 292 292 294 296 297 296 296 296 296 295 295 294 294 293 293 294 294 294 294 294 294 293 294 294 295 295 295 296 296 296 296 295
297 297 296 297 297 298 298 299 300 300 299 299 299 300 300 300 300 300 299 299 299 297 296 294 292 291 291 291 291 291 291 292 291 293 295 297 296 296 296 296 295 295 294 294 294 293 294 294 294 294 294 294 294 294 294 295 295 295 295 295 295 295 295
296 297 297 298 298 298 299 299 300 300 300 300 300 300 300 300 299 299 299 299 299 298 297 295 292 291 291 291 291 291 291 291 291 292 294 296 296 295 296 295 295 294 294 294 294 293 294 294 294 294 294 294 294 294 294 294 295 295 295 295 295 295 295
297 297 299 300 300 300 300 300 300 300 301 300 300 300 300 299 299 299 299 299 299 298 298 297 294 291 291 291 291 290 290 291 291 291 294 295 295 295 295 295 295 294 294 294 294 294 294 294 294 294 294 294 294 294 294 294 294 294 294 294 294 294 295

ECMWFFLT1_850_thetae_093.txt.gz
Theta_e
334 332 331 329 327 326 326 325 324 324 325 325 325 326 325 324 322 318 316 317 316 315 314 312 311 311 311 310 309 309 308 308 308 308 307 308 309 311 313 315 316 317 317 317 316 315 315 315 312 310 311 310 310 309 310 312 313 315 316 317 318 318 319
332 330 328 327 326 326 325 324 324 323 324 324 324 324 322 320 318 315 313 312 312 311 310 310 309 309 308 307 306 305 305 305 305 305 305 304 304 305 305 306 307 308 309 311 310 308 309 311 309 306 305 303 303 303 303 303 302 303 303 304 305 306 311
328 326 325 324 324 324 323 323 323 322 322 322 321 320 318 316 314 312 311 310 310 309 308 307 306 305 304 303 302 301 301 301 301 301 301 301 301 301 302 303 305 306 306 307 306 305 307 309 308 307 306 306 305 302 301 300 300 300 299 300 301 302 305
325 324 323 322 322 322 322 322 322 321 321 319 317 315 313 311 310 309 309 308 307 306 305 303 302 301 301 300 300 299 299 299 300 300 300 301 300 299 302 306 308 309 309 308 307 304 305 307 307 307 307 306 304 301 299 299 298 299 298 299 300 300 300
324 323 322 322 321 321 321 321 320 318 318 316 312 310 309 308 307 306 305 304 302 302 301 300 300 300 299 299 299 298 298 298 299 300 300 300 300 300 305 309 309 310 309 309 306 302 302 305 306 306 306 304 301 298 297 298 298 297 298 298 298 297 297
323 321 321 322 321 320 319 319 317 316 315 312 308 306 305 304 303 302 300 300 300 299 299 299 299 299 298 298 299 298 298 298 298 299 300 300 300 302 307 308 308 309 309 307 303 301 302 304 304 305 302 300 298 297 296 296 297 297 297 297 297 296 297
322 321 321 322 320 318 318 317 315 314 313 309 304 303 302 300 299 299 299 299 299 298 298 298 298 298 298 298 298 300 301 299 297 297 298 300 301 303 306 307 307 307 305 302 300 300 302 302 302 302 300 298 297 297 296 296 296 297 297 297 296 297 297
320 320 320 320 319 318 317 315 313 311 309 304 301 300 299 298 298 298 298 298 298 298 298 298 297 297 297 297 298 300 301 299 297 296 297 298 300 302 304 304 304 302 299 298 297 297 299 299 299 299 298 298 297 297 296 296 296 296 297 297 297 297 297
319 319 319 319 318 317 315 314 310 306 302 299 298 298 298 298 297 297 297 297 297 297 297 297 297 297 297 297 298 298 299 299 298 297 296 297 300 302 302 301 299 297 296 296 296 295 296 297 297 297 297 297 297 298 297 297 296 296 296 297 297 297 297
317 317 317 317 317 315 313 311 306 300 298 297 297 297 297 297 297 297 297 297 297 297 297 297 297 297 297 297 297 298 299 300 299 298 297 297 301 304 303 301 298 296 295 295 295 296 296 296 296 296 296 296 296 297 298 297 297 297 296 297 297 297 297
315 315 315 314 313 313 311 307 301 297 297 297 297 296 296 296 296 296 296 296 296 297 297 297 296 296 296 296 298 298 299 300 300 298 297 297 300 303 303 301 298 296 295 295 295 296 295 296 295 296 296 296 296 296 297 297 297 297 297 297 297 297 298
312 312 311 311 310 309 306 301 297 297 297 297 296 296 296 296 296 296 296 296 297 297 297 297 296 296 296 296 297 297 298 299 299 298 297 298 300 301 300 299 298 296 295 295 295 295 295 296 296 295 296 296 296 296 296 297 297 297 297 297 297 297 297
311 311 311 310 309 305 300 297 297 297 297 297 297 296 296 296 296 296 296 297 296 297 297 296 296 296 296 296 297 298 298 299 299 299 299 300 301 300 298 298 298 296 296 295 295 295 295 295 296 295 296 296 295 296 296 296 296 297 296 296 296 297 297
311 311 311 309 306 301 298 298 298 298 298 298 297 296 296 296 296 296 296 296 296 296 296 296 297 296 297 297 299 300 300 300 301 302 301 300 300 300 298 298 297 296 295 295 295 295 295 295 295 295 295 295 295 296 295 295 296 296 296 296 296 296 296
311 310 308 305 301 300 299 299 299 298 298 297 297 296 296 296 296 296 296 296 296 296 295 295 296 297 298 298 300 302 302 300 302 303 301 300 300 300 298 297 297 296 295 295 295 294 294 294 295 295 295 295 296 296 295 295 295 296 296 296 296 296 296
309 308 306 302 300 299 298 299 299 298 297 297 297 296 296 296 295 295 295 295 295 295 295 295 295 297 297 297 300 303 302 299 301 302 301 300 300 299 298 297 297 295 295 295 294 294 294 294 294 295 295 296 296 296 295 295 295 295 296 296 296 296 296
308 307 304 301 300 299 298 298 298 297 296 297 297 296 295 295 295 295 295 295 295 295 295 295 295 296 297 297 299 302 302 300 301 302 301 300 299 298 298 297 296 295 295 295 294 294 293 294 294 295 295 296 295 295 295 295 295 295 295 296 296 296 296
306 304 302 300 299 298 297 297 297 296 297 296 296 295 295 295 295 295 295 295 295 295 294 294 294 295 297 297 298 301 302 302 301 300 300 300 299 298 298 297 296 296 295 295 294 294 293 293 294 294 295 295 295 294 294 294 295 295 295 295 295 295 295
303 301 300 299 298 297 296 296 296 296 297 297 296 295 294 294 294 294 295 294 294 294 294 294 294 295 297 298 298 300 302 301 299 300 300 299 299 298 297 297 297 296 295 295 295 294 293 293 293 294 295 295 294 294 294 294 294 295 295 295 295 295 295
301 300 299 298 297 296 296 296 295 295 296 296 295 294 294 294 294 294 294 294 294 294 294 294 294 295 297 298 299 299 300 300 299 299 300 299 299 298 297 297 297 296 296 295 295 295 294 293 293 293 294 294 295 294 294 294 294 294 294 295 295 295 295
299 299 298 297 296 296 296 296 295 295 295 295 294 294 294 294 294 294 294 294 294 294 294 294 294 295 296 297 299 300 300 300 299 299 299 299 299 298 297 296 296 296 296 295 295 295 294 293 293 293 293 294 294 294 294 294 294 294 294 294 294 295 295
298 298 297 296 296 296 296 296 296 296 296 295 295 294 294 294 294 294 294 294 294 294 294 294 294 295 296 297 298 300 300 300 299 299 299 299 299 298 297 296 296 296 296 295 295 295 295 293 293 294 293 293 294 294 294 294 294 294 294 294 294 295 295
297 297 296 296 296 296 296 296 296 297 298 298 295 293 293 293 293 293 293 293 293 293 293 293 294 295 296 297 298 299 300 300 299 299 298 299 299 298 297 297 296 296 296 295 295 295 295 293 293 293 293 293 293 294 294 294 294 294 294 294 294 294 295
296 296 296 296 295 295 295 295 296 297 299 298 295 293 293 293 293 293 293 293 293 293 293 293 294 294 296 297 297 298 299 299 299 298 298 298 298 298 297 297 296 296 296 295 295 295 294 293 293 293 293 293 294 294 294 294 294 294 294 294 294 294 295
296 296 296 295 295 295 295 295 295 296 297 296 294 293 293 293 293 292 293 293 293 293 292 293 293 294 294 296 297 299 299 299 299 299 297 297 298 298 297 297 296 296 296 296 295 295 294 293 293 293 294 294 294 294 294 294 294 294 294 294 294 294 295
295 295 295 295 295 295 295 295 295 295 296 296 295 294 293 292 292 292 292 292 292 292 292 292 292 293 293 294 295 297 298 299 299 299 298 297 298 298 297 297 296 296 296 296 295 294 294 294 293 294 294 294 294 294 294 294 294 294 294 294 294 294 294
295 294 294 295 295 295 294 294 294 294 295 296 296 296 294 292 292 292 292 292 292 292 292 292 292 292 292 293 293 294 295 297 298 299 298 297 297 298 297 297 296 296 296 296 295 294 294 294 294 294 294 294 294 294 294 294 294 294 294 294 294 294 294
295 295 294 294 294 294 294 294 294 294 294 295 296 296 295 293 292 292 292 292 292 292 292 292 292 292 292 292 292 292 293 294 297 298 298 297 297 297 297 297 297 296 296 296 295 294 294 294 294 294 294 294 294 294 294 294 294 294 294 294 294 294 294
296 295 294 294 294 294 294 294 293 293 293 293 293 294 294 293 293 292 292 292 292 292 292 292 292 292 292 291 292 292 292 293 294 296 297 297 297 297 297 297 296 296 296 295 294 294 294 294 294 294 294 294 294 294 294 294 294 294 294 294 294 294 294
297 295 295 294 294 294 294 294 294 293 293 293 293 293 293 293 292 292 292 292 292 292 292 292 292 292 291 291 291 291 292 292 292 294 296 297 297 296 296 296 296 295 295 294 294 294 294 294 294 294 294 294 294 294 294 293 294 293 293 293 293 294 294
297 295 295 294 294 294 294 294 294 293 293 293 293 292 292 292 292 292 292 292 292 292 292 292 292 292 291 291 291 291 291 291 291 292 294 295 296 295 295 295 295 294 294 294 294 294 294 294 294 294 294 294 294 294 294 293 293 293 293 293 293 294 295
296 295 295 294 294 294 294 294 294 295 295 295 293 293 293 294 294 294 294 294 293 293 292 292 292 292 291 291 291 291 291 291 291 291 291 293 294 294 294 294 294 294 294 294 294 294 294 294 294 294 294 294 294 294 294 294 293 293 292 293 293 294 295
296 295 295 295 295 294 294 295 296 296 297 297 295 295 296 297 297 297 297 296 296 295 293 292 292 292 291 291 291 291 291 291 291 291 291 292 293 294 294 294 294 294 294 294 294 294 294 294 294 294 294 294 293 293 294 294 293 292 292 293 294 294 294
296 295 295 295 295 295 296 297 298 298 299 298 297 298 299 299 299 299 298 298 298 298 296 294 293 292 291 291 291 291 291 291 291 292 292 293 294 294 294 294 295 294 294 295 294 294 294 294 293 293 294 294 293 293 293 293 292 292 293 293 294 294 294
296 295 295 295 295 296 298 300 300 300 299 298 298 300 300 299 299 300 299 299 299 299 298 296 294 292 292 291 291 291 291 291 291 292 293 293 294 294 294 295 295 294 295 295 294 294 294 294 293 293 294 294 293 293 293 293 292 292 293 293 293 294 294
296 295 295 295 295 297 299 300 299 299 299 298 299 300 300 300 300 300 300 300 299 299 299 297 295 293 292 292 291 292 292 292 292 292 293 293 294 294 294 295 295 295 295 295 295 294 293 293 294 293 294 294 293 293 293 292 291 292 293 293 293 293 294
296 295 295 295 296 297 298 298 298 299 300 300 300 300 300 300 300 300 300 300 300 300 299 298 297 294 292 292 292 292 292 292 292 293 293 294 294 294 294 294 294 295 295 295 295 294 293 293 294 293 293 293 292 293 292 291 291 292 293 293 293 293 294

ECMWFFLT1_850_thetae_096.txt.gz
Theta_e
331 331 330 329 329 328 327 326 325 324 324 324 324 324 324 324 325 323 321 320 320 319 316 314 312 310 309 309 309 308 307 307 306 306 305 304 306 309 311 313 314 315 315 315 313 310 307 305 303 302 302 301 300 301 300 299 299 299 298 298 299 299 300
332 332 331 329 327 326 325 323 323 322 323 322 321 321 322 322 322 319 316 315 315 313 312 310 309 307 307 306 305 305 304 304 303 302 302 301 302 303 305 306 307 308 308 308 307 304 301 301 300 301 301 301 301 300 299 298 298 297 298 297 298 297 297
332 332 330 327 325 324 323 323 322 321 321 320 320 321 320 319 318 315 312 312 311 309 309 308 306 304 303 303 302 302 301 301 301 301 300 300 300 302 304 305 306 306 306 304 303 301 300 300 300 299 298 299 300 299 298 298 297 297 297 297 297 297 297
332 331 329 326 324 324 323 322 321 320 319 319 320 319 317 315 313 310 309 309 308 308 307 305 303 302 302 301 301 300 300 300 300 300 299 300 301 303 305 306 306 306 305 303 301 300 299 300 299 297 296 296 297 298 298 297 297 297 297 296 296 297 297
330 328 326 324 323 323 322 321 320 319 319 319 318 315 312 310 309 307 306 306 305 305 303 302 301 300 300 300 300 300 300 299 299 299 299 299 301 303 305 305 305 305 303 300 298 298 298 298 297 296 296 296 296 297 297 297 297 296 296 296 296 297 296
327 325 324 323 322 321 320 319 319 318 318 317 314 310 307 305 305 304 304 303 302 302 301 300 300 299 299 299 299 299 299 299 298 298 298 299 300 302 303 304 303 301 298 297 296 296 296 296 296 296 296 296 296 296 296 297 297 296 296 297 296 297 297
325 324 323 322 321 321 319 318 318 317 317 313 308 305 304 302 302 301 301 300 300 300 299 299 299 299 299 299 299 299 298 298 297 297 298 299 299 300 302 301 299 296 295 295 296 295 296 295 295 296 295 296 296 296 296 296 296 296 297 297 296 297 297
324 323 322 321 321 319 318 318 316 316 316 309 303 301 301 300 300 299 299 299 299 299 299 299 298 298 298 298 298 299 298 297 297 296 297 298 299 300 299 297 296 295 295 295 295 295 295 295 295 295 295 295 296 296 296 296 296 296 296 297 297 297 297
322 321 321 320 320 318 317 317 314 313 312 305 299 300 299 298 298 298 298 298 298 299 298 298 298 298 298 298 298 297 297 297 297 296 297 297 299 300 298 296 295 295 295 295 295 295 295 295 295 296 295 295 295 296 296 296 296 296 296 297 297 297 297
320 319 319 319 319 318 317 315 312 309 306 301 298 299 298 298 298 298 298 298 298 298 298 298 298 297 298 297 297 297 298 298 296 296 297 297 298 298 297 296 295 295 295 295 295 295 295 295 295 295 295 295 295 295 296 296 296 296 297 296 297 297 297
318 318 318 317 318 317 316 314 308 303 301 298 297 298 297 297 298 297 298 298 298 298 297 298 297 297 297 297 297 298 298 297 296 295 296 297 297 297 296 296 295 295 294 295 295 295 295 295 295 295 295 295 296 296 295 295 296 296 296 296 296 297 297
317 317 317 317 316 315 315 311 304 299 298 298 297 297 297 297 297 297 297 297 297 297 297 297 297 297 297 297 297 297 297 297 296 296 296 296 297 296 296 296 295 295 294 295 295 295 295 295 295 295 295 295 296 296 295 294 295 296 295 295 296 296 296
315 315 315 316 314 313 312 306 299 297 298 297 297 297 297 297 297 297 297 297 297 297 297 297 297 297 297 296 296 296 297 297 297 298 297 296 296 296 295 295 295 294 295 295 295 295 295 295 294 294 295 295 295 295 294 294 294 295 295 294 295 295 295
314 314 314 313 312 311 308 301 297 298 297 297 297 297 297 297 297 297 297 297 296 296 297 296 296 297 296 297 297 296 297 298 299 299 298 296 296 296 295 295 294 294 295 294 294 294 294 294 294 294 294 295 295 295 294 294 294 294 294 294 294 294 294
312 312 311 310 310 307 302 298 299 298 297 296 297 297 297 297 297 296 296 296 296 296 296 296 296 296 296 297 297 296 297 298 300 299 298 296 296 296 295 294 294 294 294 294 294 294 294 294 294 294 294 294 294 294 294 294 294 294 294 294 294 294 294
310 310 309 308 306 302 299 299 299 298 296 297 297 296 296 296 296 296 296 296 296 296 296 296 296 296 296 297 297 297 297 298 299 298 297 297 296 295 295 294 294 294 294 294 294 294 294 293 293 293 293 293 294 294 294 294 294 294 294 294 294 294 294
310 310 309 306 302 299 299 300 299 297 297 297 297 296 296 296 296 296 296 296 295 296 296 295 295 295 296 297 297 299 299 298 298 298 298 297 297 295 294 294 294 294 294 294 294 294 294 293 293 293 293 293 293 293 293 294 294 294 294 294 294 294 294
310 310 307 303 300 299 299 299 298 298 297 296 296 296 296 296 296 296 296 295 295 295 295 295 295 295 296 297 298 300 300 298 298 299 298 298 298 296 295 295 295 295 295 295 294 294 294 293 293 293 293 293 293 293 293 293 293 294 294 294 294 294 294
310 308 304 301 299 299 299 298 298 297 296 296 296 296 296 296 295 295 296 295 295 295 295 295 294 295 296 297 298 299 298 298 299 299 299 298 298 297 295 295 296 295 295 295 295 295 294 293 293 293 293 293 293 293 293 293 293 293 294 294 294 294 294
310 307 303 301 299 299 299 299 298 297 296 296 296 296 296 295 295 296 295 295 295 295 295 295 294 296 296 297 298 297 297 298 299 299 299 299 298 297 296 296 296 296 295 295 295 295 294 293 293 293 293 293 293 294 293 293 293 294 294 294 294 294 294
308 306 303 301 299 298 298 298 297 296 296 296 295 295 295 295 295 295 295 295 295 294 294 294 294 295 296 297 298 298 297 298 299 298 299 299 298 297 297 296 296 296 295 295 295 295 293 293 293 293 293 294 293 294 294 293 294 294 294 294 294 294 294
306 304 302 301 299 297 297 297 297 296 296 295 295 295 295 295 295 295 295 295 295 294 294 294 294 295 296 296 298 298 298 298 298 298 298 298 298 297 297 296 296 296 295 296 296 294 293 293 293 293 294 294 294 294 294 294 294 293 293 293 294 294 294
304 303 302 301 299 297 297 296 296 295 295 295 294 294 294 294 294 294 294 294 294 294 294 294 294 294 295 296 297 299 299 298 298 297 297 297 297 297 297 297 296 296 296 296 295 294 293 293 293 293 293 294 293 294 294 294 293 293 293 293 293 293 293
304 302 302 300 299 298 297 296 295 295 295 294 294 294 294 294 294 294 294 294 294 294 293 294 294 294 295 296 297 298 299 299 298 297 296 297 297 297 297 297 296 296 296 295 294 293 293 293 293 293 293 293 293 294 294 293 293 293 293 293 293 293 293
303 302 301 300 299 298 297 296 295 295 295 295 294 294 293 293 293 293 293 293 293 293 293 293 293 294 294 295 296 297 298 298 298 297 296 296 297 297 297 296 296 296 295 294 293 293 293 293 293 293 293 293 293 294 293 293 293 293 293 293 293 293 293
302 301 300 299 298 298 297 297 296 296 296 295 293 293 293 293 293 293 293 293 293 293 293 293 293 293 293 293 294 295 296 297 298 297 296 296 297 297 297 297 296 295 294 294 294 294 294 293 293 294 293 293 293 293 293 293 293 293 293 293 292 292 293
301 300 299 298 298 297 297 296 296 297 296 294 293 293 293 293 293 293 292 293 293 293 293 292 292 292 292 292 292 293 294 295 296 297 296 296 296 296 296 296 295 294 294 294 294 294 294 294 293 293 293 293 293 293 293 293 293 293 293 292 292 293 293
299 298 298 297 296 296 296 296 296 296 296 294 293 293 293 293 293 293 292 292 293 293 292 292 292 292 291 291 291 292 292 293 295 296 296 296 296 296 295 294 294 294 294 294 294 294 294 293 293 293 293 293 293 293 292 292 292 292 291 292 292 293 294
299 297 297 296 295 295 295 295 295 295 295 295 294 293 292 293 293 292 292 292 292 292 292 292 292 291 291 291 291 291 291 292 293 295 296 295 296 295 294 293 293 294 294 294 294 294 293 294 293 293 292 293 293 293 292 292 291 290 291 292 293 294 294
298 297 296 295 295 294 294 295 295 294 295 295 295 293 292 292 292 292 292 292 292 292 292 292 292 291 291 291 291 291 291 291 292 293 294 295 295 294 293 293 294 294 294 294 294 294 293 294 293 293 292 293 293 293 292 291 290 290 291 293 294 294 295
296 296 295 294 294 294 294 294 294 294 294 294 294 293 292 292 292 292 292 292 292 292 292 292 292 291 291 291 291 291 291 291 291 292 293 294 294 294 293 294 294 294 294 294 294 294 293 293 293 292 293 293 293 292 292 290 290 290 292 293 294 294 295
296 295 294 294 294 294 294 294 294 294 294 293 293 292 292 292 293 293 293 293 293 293 293 292 292 292 292 292 292 291 291 291 291 292 292 293 293 293 293 294 294 294 294 294 294 294 293 292 292 292 293 293 292 292 291 290 289 291 293 293 294 295 295
296 295 294 294 294 294 294 294 294 293 293 293 293 292 293 294 295 295 295 295 295 294 294 293 292 292 292 292 292 292 292 292 292 292 292 293 293 293 293 293 294 294 294 294 294 293 292 292 292 292 292 292 292 291 290 289 289 291 293 293 294 295 295
297 295 295 294 294 294 294 294 293 293 293 292 293 295 296 297 297 297 297 297 297 297 296 294 293 292 293 292 292 292 292 292 292 292 292 293 293 293 293 293 293 294 294 294 294 293 292 292 292 291 291 291 291 290 289 288 289 292 293 293 294 295 295
298 296 295 294 294 294 294 293 294 294 294 294 296 298 298 298 299 299 298 298 298 298 297 296 294 293 292 292 292 292 292 292 292 292 292 292 293 293 293 293 294 294 294 294 294 293 292 292 292 291 291 290 290 289 288 288 290 292 292 293 294 295 295
299 297 296 294 294 294 294 294 295 295 295 296 298 299 299 299 299 299 299 299 299 299 298 297 295 293 292 292 292 292 292 292 292 292 292 293 293 293 294 294 294 294 294 294 294 293 291 291 291 291 290 290 290 289 288 288 290 292 293 293 294 295 295
299 297 296 295 295 294 295 296 297 297 296 297 299 299 299 300 300 299 299 299 299 298 298 298 296 294 293 292 292 292 292 293 293 293 293 293 293 294 294 294 294 295 294 294 294 292 291 291 291 291 291 291 290 290 289 288 290 292 293 293 294 295 295

ECMWFFLT1_850_thetae_102.txt.gz
Theta_e
333 333 331 330 330 330 329 329 329 329 328 328 328 327 325 323 322 322 323 323 322 320 316 313 312 310 309 308 307 306 305 304 303 303 302 302 302 302 301 301 301 301 300 300 300 299 299 299 299 299 299 298 297 297 297 297 296 296 296 296 296 296 296
332 332 331 330 330 329 328 328 328 328 328 327 326 324 322 320 321 322 322 320 318 314 312 310 308 307 307 306 304 303 302 302 301 301 301 301 301 300 300 300 300 300 299 299 299 299 299 299 299 299 299 298 297 296 296 296 296 296 296 296 296 296 296
332 332 332 331 331 329 328 328 327 327 327 325 323 321 320 320 320 320 318 316 313 310 308 307 306 305 304 303 302 301 301 301 301 301 300 300 300 300 300 299 299 299 299 299 299 299 298 298 298 298 298 298 298 297 296 295 295 295 295 295 296 295 295
332 332 332 331 331 330 328 327 326 325 324 322 321 320 319 319 318 316 314 311 309 307 305 304 303 302 301 301 301 301 300 300 300 300 300 300 300 300 300 300 300 299 299 299 298 298 297 297 297 297 297 297 297 297 296 296 296 296 295 295 295 295 295
332 332 331 331 329 328 327 326 325 324 322 321 320 319 318 317 315 312 309 307 306 304 303 302 301 300 300 300 300 300 300 300 300 299 300 300 299 299 300 299 299 298 298 298 297 296 296 296 296 296 296 297 297 296 296 296 296 295 295 295 295 295 295
331 331 330 329 328 327 326 325 324 322 320 320 319 318 315 313 310 307 305 304 303 302 301 300 300 299 299 299 299 299 300 299 299 299 299 299 299 299 299 298 297 297 297 296 296 296 296 295 295 295 295 296 296 296 296 296 296 296 295 295 295 295 295
330 329 329 329 328 327 326 324 322 320 319 319 317 315 311 308 305 304 302 301 301 300 300 299 299 299 299 299 299 299 299 299 299 298 299 298 298 298 297 297 297 296 296 296 295 295 295 295 295 295 295 295 295 296 296 296 295 295 295 295 295 295 295
329 330 330 329 328 326 324 321 320 319 318 317 314 310 306 303 302 301 300 300 299 299 299 299 299 299 298 299 299 299 299 299 298 298 298 297 297 297 296 296 296 296 295 295 295 295 294 294 294 294 294 295 295 295 296 296 296 295 295 295 295 295 295
331 331 330 329 327 324 321 319 319 317 316 314 311 305 302 301 300 300 300 299 299 298 298 298 298 298 298 298 298 298 298 298 297 297 297 297 296 296 296 295 295 295 295 294 294 294 294 294 294 294 294 294 294 294 295 295 295 295 295 294 295 295 294
331 330 329 327 325 322 320 319 318 316 314 312 307 301 300 300 299 299 299 299 298 298 298 298 298 298 298 298 298 298 298 297 297 297 297 296 296 295 295 295 295 295 294 294 294 294 294 294 294 293 293 293 293 293 293 294 294 294 295 294 294 294 294
330 328 326 324 322 321 319 318 316 314 313 309 303 299 299 299 298 299 299 298 298 297 298 297 297 297 297 297 297 297 297 297 297 297 296 296 296 295 295 295 294 294 294 294 294 294 293 294 293 293 293 293 293 293 293 293 293 294 294 294 294 294 294
328 326 324 322 320 319 317 316 315 313 311 306 300 298 298 298 298 299 298 298 297 297 297 297 297 297 297 297 297 297 297 297 297 297 296 296 295 295 294 294 294 294 294 294 293 293 293 293 293 293 293 293 293 293 293 293 293 294 293 293 293 293 293
326 324 322 320 318 317 316 315 313 311 308 303 298 297 298 298 298 298 297 297 296 296 297 296 297 297 296 297 297 297 297 296 296 296 296 295 295 294 294 294 294 294 294 293 293 293 293 293 293 293 293 293 293 293 293 293 293 293 293 293 293 293 293
324 322 320 318 317 316 315 314 312 309 305 300 297 297 297 297 297 297 296 296 296 296 296 296 296 297 296 297 296 296 296 296 296 296 296 295 295 294 294 294 294 294 293 293 293 293 293 293 293 292 293 293 293 293 293 293 293 293 293 293 293 293 293
322 320 319 317 316 315 314 313 311 307 302 299 297 297 296 296 296 296 296 296 296 296 296 296 296 296 296 296 296 297 296 296 296 296 295 295 294 294 294 294 294 294 293 293 293 293 293 293 292 292 293 292 292 293 293 293 293 292 293 293 293 293 293
320 319 317 316 316 315 313 312 310 305 300 298 297 296 296 296 296 295 296 295 295 296 296 296 296 296 296 296 296 296 296 296 296 296 296 295 295 294 294 294 294 294 293 293 293 293 292 292 292 292 292 292 292 292 292 292 293 292 292 292 292 292 292
319 317 316 315 315 314 312 311 308 302 298 298 297 296 296 296 295 295 295 295 295 295 295 296 296 295 296 296 296 296 295 295 296 296 295 295 295 295 295 294 294 294 293 293 293 292 292 292 292 292 292 292 292 292 292 292 292 292 292 291 292 292 292
318 316 315 314 313 312 311 310 305 300 298 298 297 296 296 295 295 295 295 295 295 295 295 295 295 295 296 296 296 296 295 296 296 296 295 295 295 295 295 294 294 294 293 293 293 292 292 292 292 292 292 292 292 292 292 292 292 291 291 291 291 292 291
317 316 314 313 312 310 310 308 302 298 298 298 297 296 295 295 295 295 295 295 295 295 295 295 295 295 295 296 296 295 296 296 296 295 295 295 295 295 295 294 294 294 293 292 292 292 292 292 292 292 292 292 292 292 291 291 291 291 290 290 291 291 291
316 315 313 311 310 309 309 305 300 298 298 298 297 295 295 295 295 295 295 295 294 295 295 295 295 295 295 295 295 295 296 295 295 295 295 295 295 295 295 294 294 294 293 292 292 292 292 292 292 292 292 292 292 291 291 291 291 290 290 290 290 290 291
314 313 311 310 309 308 306 302 299 299 298 298 297 295 294 295 295 295 295 295 295 295 295 294 295 295 295 295 295 295 295 295 295 294 294 295 295 295 294 294 294 294 293 292 292 292 292 292 292 292 292 292 292 291 291 291 290 290 289 290 290 290 291
312 311 310 309 309 307 304 300 299 299 298 297 296 295 294 295 294 295 295 294 295 294 294 294 294 295 295 295 295 295 295 295 295 295 294 294 294 294 294 293 294 293 293 292 292 292 292 292 292 292 291 291 291 291 290 290 290 289 289 290 290 291 291
311 310 310 309 308 305 302 299 299 299 298 297 296 294 294 295 294 294 294 294 294 294 294 294 294 294 295 295 295 295 294 294 294 295 294 294 294 294 293 293 293 293 292 292 292 293 293 292 292 291 291 291 291 290 290 290 290 289 289 289 290 291 292
311 310 310 309 306 303 301 299 299 299 298 296 295 294 294 294 294 294 294 294 294 294 294 294 294 294 294 294 294 294 294 294 294 294 294 294 294 293 293 293 293 293 292 292 292 293 293 292 291 291 291 291 291 291 290 290 290 289 289 290 290 292 292
311 311 310 309 306 303 301 299 299 299 297 296 295 294 294 294 294 294 294 294 294 294 294 294 294 294 294 294 294 294 293 293 293 294 294 294 294 294 293 293 293 292 292 292 293 293 292 292 291 291 291 291 291 291 291 290 290 289 289 290 291 292 293
312 311 310 309 306 303 301 299 298 298 297 296 295 294 294 294 294 294 294 294 294 294 294 294 294 294 294 294 294 294 293 293 293 293 293 294 294 293 293 293 292 292 292 292 293 293 292 291 291 291 291 291 291 291 291 291 290 290 290 291 291 292 293
311 310 309 308 307 304 300 298 298 298 297 296 294 294 294 294 294 294 294 294 294 294 294 294 294 294 294 294 293 293 293 293 292 292 293 293 293 293 293 293 292 292 292 293 293 293 292 291 291 290 290 291 291 291 291 291 291 290 290 291 292 292 293
310 310 309 308 307 304 300 299 298 297 296 295 294 294 294 294 294 294 294 294 294 294 294 294 293 293 293 293 293 293 293 293 293 292 292 292 293 293 293 292 292 292 293 293 293 293 292 292 291 290 290 290 290 291 291 291 291 290 290 290 291 292 293
310 310 309 308 306 303 300 300 299 297 296 295 294 293 293 294 293 294 294 294 293 293 293 293 293 293 293 293 293 293 293 293 293 292 292 292 292 292 292 292 292 293 293 293 293 293 293 292 291 290 290 291 290 290 291 291 291 291 290 290 291 292 293
310 310 309 307 304 302 300 300 299 298 296 295 294 293 293 293 293 293 293 293 293 293 293 293 293 293 293 293 293 293 293 293 293 292 292 292 292 292 292 292 292 293 293 293 293 293 293 292 291 290 290 291 291 290 290 291 291 291 291 290 290 291 292
310 310 308 305 303 302 301 300 299 298 297 296 294 293 293 293 293 293 293 293 293 293 293 293 293 293 294 294 293 293 293 293 293 293 292 292 292 292 292 292 292 292 292 293 293 293 293 292 291 290 290 290 290 290 290 290 291 291 291 291 290 290 291
310 309 306 304 303 301 301 300 299 298 298 296 294 293 293 293 293 293 293 293 293 293 293 293 293 293 294 294 294 294 293 293 293 293 293 292 292 292 292 292 292 292 292 293 293 293 292 292 291 290 290 290 290 290 290 290 290 291 291 291 290 290 291
310 307 304 303 302 301 300 300 300 299 298 297 294 293 293 293 293 293 293 293 293 292 292 293 293 294 294 294 294 294 293 294 293 293 292 292 292 292 292 292 292 292 293 293 293 293 292 291 291 290 290 290 290 290 290 290 290 290 291 291 290 290 290
309 306 304 303 303 302 301 300 300 298 298 297 295 293 292 293 293 293 293 293 293 293 293 293 293 293 293 293 294 293 293 294 293 293 292 292 292 292 292 292 292 293 293 293 293 293 292 291 291 291 290 290 290 290 290 290 290 290 291 291 291 290 290
307 305 304 304 303 302 302 301 300 298 297 297 296 294 293 293 293 293 293 293 293 293 293 293 293 293 293 293 294 293 294 294 293 292 292 292 292 293 293 293 293 293 293 294 293 293 292 292 292 292 291 291 290 290 290 290 290 290 291 291 291 290 290
306 305 304 304 302 302 302 301 299 298 297 296 296 295 293 292 293 293 294 294 294 294 294 294 294 293 293 293 294 293 294 293 293 293 293 293 293 293 293 293 293 293 294 294 294 293 293 292 292 292 292 292 291 291 291 291 291 291 291 290 291 290 290
304 304 303 303 302 302 301 299 298 298 297 296 296 295 293 292 293 294 295 295 295 295 294 294 294 293 293 293 294 294 294 293 293 293 293 293 293 293 293 293 293 294 294 294 294 294 293 293 292 292 292 292 292 291 291 291 291 291 291 291 290 290 290

ECMWFFLT1_850_thetae_105.txt.gz
Theta_e
334 334 333 332 331 330 329 329 329 328 327 327 328 327 326 324 322 321 321 321 319 314 310 307 306 305 304 303 302 301 301 301 301 301 301 301 301 301 301 301 300 300 300 299 299 299 300 301 299 297 296 296 296 296 296 296 296 296 295 295 295 295 295
334 333 333 332 330 329 329 328 328 327 327 328 327 325 323 322 322 321 319 318 314 309 307 305 304 303 302 301 300 300 300 300 301 301 301 301 301 301 300 300 300 299 299 299 300 299 298 300 299 297 296 296 296 295 295 295 295 295 295 295 295 295 295
333 332 332 331 330 329 328 327 327 327 326 326 325 323 322 322 320 319 317 313 310 307 304 303 302 301 300 300 300 300 300 300 300 300 300 300 300 300 299 299 299 299 299 299 299 299 299 298 298 297 297 296 296 295 295 295 295 295 295 295 295 295 295
332 332 331 331 330 329 328 327 326 326 325 324 323 322 322 320 318 316 312 309 306 304 303 301 300 299 299 299 299 299 299 300 300 300 300 300 300 300 299 300 300 299 299 299 299 298 298 298 297 297 297 296 296 295 295 295 295 295 295 294 294 295 295
333 332 331 330 330 329 328 327 326 325 324 323 322 321 320 317 315 312 308 306 304 302 301 300 299 299 299 299 299 299 299 299 299 299 300 300 299 300 300 299 299 299 299 299 298 298 298 297 297 296 296 296 296 295 295 295 295 295 295 294 294 295 295
333 332 331 330 329 329 328 327 326 324 323 322 321 319 316 313 310 307 305 303 301 300 300 299 299 298 298 298 298 299 299 299 299 299 299 299 299 299 299 299 298 298 298 298 297 297 297 296 296 296 296 296 296 296 295 295 295 295 295 294 294 294 294
331 331 331 330 329 328 328 327 326 324 322 321 319 316 311 308 306 304 302 301 300 299 299 298 298 298 298 298 298 298 299 299 298 299 299 299 299 299 298 298 298 298 297 297 296 296 296 296 295 295 295 296 296 296 296 295 295 295 295 295 294 294 294
330 330 330 329 328 328 328 327 326 324 321 319 316 311 306 304 303 301 301 300 300 299 299 298 298 298 298 298 298 298 299 298 298 299 299 298 298 298 298 297 297 297 297 296 296 295 295 295 295 295 295 295 295 296 296 295 295 294 294 294 294 294 294
330 330 329 329 329 329 328 326 325 322 319 317 312 306 303 302 301 300 300 300 299 299 299 298 298 298 297 297 298 298 298 298 298 298 298 298 298 297 297 297 296 296 296 295 295 295 295 294 294 294 294 294 294 296 296 295 294 294 294 294 294 294 294
330 329 329 330 329 328 327 325 322 319 317 314 308 303 301 300 300 300 300 299 299 299 298 298 297 297 297 297 297 298 298 297 297 298 297 297 297 296 296 296 296 296 295 295 295 294 294 294 294 294 294 293 293 295 296 296 294 294 294 294 293 294 294
329 329 330 330 328 327 326 323 320 317 315 311 304 301 300 299 299 299 299 299 298 298 298 297 297 297 297 297 297 297 297 297 297 297 296 296 296 296 295 295 295 295 295 294 294 294 294 294 294 293 293 293 293 293 294 295 295 293 293 293 293 293 293
329 330 330 329 328 326 324 321 318 316 313 307 301 299 299 298 298 298 298 298 298 297 297 297 297 297 297 297 297 297 297 296 296 296 296 296 296 295 295 295 295 294 294 294 294 293 293 294 293 293 293 293 292 292 292 293 295 294 292 293 293 293 293
331 330 329 328 327 325 321 319 317 314 311 304 299 299 299 298 298 297 297 297 297 297 297 297 297 297 297 297 297 296 296 296 296 296 296 295 295 295 295 294 294 294 293 293 293 293 293 293 293 293 293 292 292 292 292 292 294 294 292 293 293 292 292
331 330 329 327 325 322 320 317 315 313 308 301 298 298 297 297 297 297 297 296 296 296 296 296 296 296 296 296 296 296 296 296 296 296 296 295 295 295 294 294 294 293 293 293 293 293 293 293 293 292 292 292 292 292 291 291 292 292 292 293 292 292 292
330 329 328 326 323 321 318 316 314 310 304 299 297 297 297 297 297 296 296 296 296 296 296 296 296 296 296 296 296 296 296 296 296 296 295 295 295 295 294 294 294 293 293 293 293 293 293 293 293 292 292 292 292 292 291 291 291 291 292 292 292 292 292
329 328 326 324 322 320 317 315 312 307 302 298 297 297 296 296 296 296 296 296 296 296 296 296 296 296 296 296 296 296 296 296 296 295 295 295 295 295 294 294 294 293 293 293 293 293 292 292 292 292 292 292 292 292 292 291 291 291 291 291 291 291 291
328 327 324 322 321 319 316 314 310 304 300 298 297 296 296 296 296 296 295 295 295 295 296 296 295 296 296 296 295 296 296 296 296 295 295 295 295 295 294 294 294 293 293 293 293 292 292 292 292 292 292 292 292 292 292 292 291 291 291 291 291 291 291
326 324 323 321 319 317 314 313 308 302 299 298 296 296 296 296 296 295 295 295 295 295 295 295 295 296 296 296 296 296 296 296 295 295 295 295 295 294 294 294 293 293 293 293 293 293 292 292 292 292 292 292 292 292 292 292 291 291 291 291 291 291 291
324 322 321 319 318 315 313 311 306 301 299 298 296 296 296 295 296 295 295 295 295 295 295 295 295 295 296 296 295 296 296 295 295 295 295 294 294 294 293 293 293 293 293 293 293 293 292 292 292 291 291 291 292 292 292 292 291 291 291 291 291 291 291
322 321 319 317 316 314 312 310 305 300 298 298 297 296 295 295 295 295 295 295 295 295 295 295 295 295 295 295 295 296 295 295 294 294 294 294 294 293 293 293 293 293 293 292 293 293 292 292 291 291 291 291 291 291 291 291 291 291 291 291 291 291 291
321 319 317 316 315 313 311 309 304 299 298 298 297 295 295 295 295 295 295 295 295 295 295 295 295 295 295 295 295 295 295 294 294 294 294 294 293 293 293 293 293 293 293 292 292 292 292 291 291 291 291 291 291 291 291 291 291 291 291 291 291 290 291
319 317 316 315 314 311 310 308 303 300 299 298 296 295 295 295 295 295 295 295 295 295 294 294 295 295 295 295 295 295 295 295 294 294 294 293 293 293 293 293 293 293 293 292 292 292 292 291 291 291 291 291 291 291 291 291 291 291 291 291 290 290 291
317 316 315 314 312 310 309 307 303 301 300 298 296 295 295 295 295 295 295 295 295 294 294 294 295 295 295 295 295 295 295 295 294 294 294 294 293 293 293 293 293 293 293 292 292 292 291 291 291 291 290 290 290 291 291 291 291 291 291 291 290 290 291
316 315 314 312 311 309 308 306 304 302 300 298 296 295 294 295 295 295 295 295 294 294 294 294 295 294 294 295 295 294 294 294 294 294 294 293 293 293 293 293 293 293 293 292 292 292 291 291 291 291 291 291 290 290 290 290 291 291 291 291 290 290 291
315 314 313 311 310 308 306 304 303 302 300 297 296 295 295 295 295 295 295 294 294 294 294 294 294 294 294 294 294 294 294 293 293 293 293 293 293 293 293 293 293 293 293 293 292 292 292 292 292 291 291 291 290 290 290 290 290 291 291 291 290 290 291
315 314 312 311 310 307 305 302 301 300 298 296 295 295 295 295 295 295 295 294 294 294 294 294 294 294 294 294 294 293 293 293 293 293 293 293 293 293 293 293 293 293 292 292 292 292 292 292 292 292 292 291 291 290 290 290 290 290 291 291 291 290 290
316 314 313 312 310 308 306 302 299 299 298 296 295 295 295 295 294 294 294 294 294 293 294 294 294 294 293 293 293 293 293 293 293 293 293 293 293 293 293 293 293 292 292 292 292 292 292 292 293 293 292 292 291 291 291 291 290 290 290 291 291 290 290
315 314 313 311 310 309 306 301 300 301 299 296 295 294 294 294 294 294 294 294 293 293 293 293 293 293 293 293 293 293 293 293 292 292 292 293 293 293 293 293 293 292 292 292 292 292 292 293 293 293 293 292 292 291 291 291 290 290 290 290 291 290 290
314 313 312 311 310 308 305 302 302 301 298 296 295 294 294 294 294 294 294 293 293 293 293 293 293 293 293 293 293 293 293 292 292 292 292 292 293 293 293 293 292 292 292 292 292 292 292 293 293 293 293 292 292 292 292 292 291 291 290 290 291 291 290
313 313 312 311 310 308 306 304 303 300 297 295 294 294 294 294 293 293 293 293 293 293 293 293 293 293 293 293 293 293 293 292 292 292 293 293 293 293 293 292 292 292 292 292 292 292 292 293 293 293 293 293 293 293 293 293 292 292 291 291 291 291 291
314 313 312 311 309 308 306 304 301 299 297 295 294 294 294 293 293 293 293 293 294 294 294 294 294 294 294 294 293 293 293 293 293 293 293 293 293 293 293 292 292 292 292 292 292 292 292 293 293 293 293 293 293 293 292 292 292 292 292 291 291 291 291
314 313 312 311 309 308 306 303 300 298 297 295 293 293 293 293 293 293 293 293 294 294 294 294 294 294 294 294 294 293 293 293 293 293 293 293 293 293 292 292 292 292 292 292 292 292 293 293 293 293 293 293 293 292 292 292 292 292 292 292 291 291 291
314 313 312 311 309 307 305 303 300 298 297 295 293 293 293 293 293 293 293 293 293 293 293 294 294 294 294 294 294 293 293 293 293 293 293 293 293 292 292 292 293 292 293 293 293 293 293 293 293 293 292 292 292 292 292 292 292 292 292 292 291 291 291
314 313 311 310 309 306 304 302 301 299 297 295 293 293 293 292 292 292 293 293 293 293 293 294 293 294 294 294 294 293 293 293 293 293 293 293 293 293 293 293 293 293 293 293 293 293 293 293 293 292 292 292 292 292 292 292 292 292 292 292 292 291 290
313 311 311 310 308 306 304 303 301 300 298 295 293 292 292 292 292 292 292 293 293 293 293 293 293 294 294 294 293 293 294 294 294 294 293 293 293 293 293 293 293 293 293 293 293 293 293 293 293 293 292 292 292 292 292 292 292 293 293 292 292 291 290
312 311 310 309 307 306 305 303 302 301 299 296 293 292 292 292 292 292 293 293 293 293 293 293 293 294 294 294 294 294 294 294 294 294 293 293 293 293 293 293 293 293 293 293 294 294 294 293 293 293 293 292 293 293 293 293 293 293 293 293 292 292 291
311 311 310 308 307 305 304 303 302 301 300 299 295 293 292 292 292 292 293 293 293 293 293 293 293 294 294 294 294 294 294 294 294 293 293 293 293 293 293 293 293 294 294 294 294 294 294 294 294 294 293 293 293 293 293 293 293 293 293 292 292 292 291

ECMWFFLT1_850_thetae_111.txt.gz
Theta_e
334 334 333 333 333 332 333 332 332 332 331 329 327 326 326 325 324 324 324 323 322 319 315 313 312 310 309 307 305 305 303 302 307 309 306 303 303 303 304 306 305 305 306 312 316 315 314 314 311 308 306 304 302 299 298 300 300 297 298 298 300 302 300
335 334 333 333 333 333 332 331 331 330 329 327 326 324 323 323 323 323 323 322 319 315 312 311 310 308 306 305 303 302 302 302 303 305 303 301 302 301 301 302 301 301 301 305 309 310 312 314 312 310 310 309 309 305 299 298 298 298 300 300 301 302 301
335 334 333 333 333 333 332 331 330 329 327 326 325 323 322 322 323 322 321 319 316 312 310 308 306 304 303 302 302 301 301 301 301 301 301 301 301 301 303 307 309 308 307 307 307 308 310 311 310 308 309 309 311 310 305 301 300 301 302 303 303 303 302
334 333 333 332 332 332 331 330 329 328 326 325 323 323 322 321 322 321 319 316 312 309 307 304 303 302 301 301 301 301 301 301 300 300 301 300 300 300 301 305 308 308 308 308 307 308 310 310 310 308 307 307 308 309 307 304 303 303 304 303 303 303 302
334 333 333 332 332 331 330 328 328 326 325 324 323 322 322 321 321 319 316 313 309 306 304 302 301 301 301 301 301 301 300 300 300 300 300 300 300 300 299 300 301 301 301 302 302 304 306 308 310 309 307 307 308 308 306 306 306 304 303 302 302 302 302
334 333 332 331 331 330 329 328 327 326 325 324 322 321 321 320 319 316 312 309 306 304 302 301 301 300 300 300 300 300 300 300 300 300 300 300 299 299 299 299 299 299 299 299 299 299 301 304 306 308 308 308 308 307 306 306 305 304 303 302 302 302 301
334 332 331 330 330 329 328 327 326 325 325 323 322 321 320 318 318 315 309 306 304 302 301 300 300 300 300 300 300 300 300 299 300 299 299 299 299 299 299 298 298 298 298 298 298 298 299 300 300 303 307 309 308 306 305 305 304 303 303 301 302 302 301
333 332 331 330 329 328 328 327 326 325 324 323 322 321 318 318 317 312 306 303 302 300 300 300 300 300 300 300 299 299 299 299 299 299 299 298 299 299 298 299 298 298 298 298 298 298 298 298 298 299 303 307 309 306 305 305 304 304 303 301 302 302 301
333 332 331 329 328 328 328 327 325 325 324 323 321 319 317 317 314 307 302 301 300 299 299 299 299 300 299 299 299 299 299 299 299 298 298 298 298 298 298 298 297 297 297 297 298 298 298 298 297 298 299 302 305 306 305 306 305 304 303 302 302 302 301
333 331 331 330 328 328 328 326 325 324 323 323 320 317 317 315 309 303 301 300 299 299 299 299 299 299 299 299 299 299 299 299 298 298 298 298 298 298 298 298 297 297 297 297 297 297 298 298 297 297 297 298 301 304 306 306 306 305 302 301 302 301 300
332 332 331 330 328 328 328 326 325 324 325 325 320 316 316 312 305 301 301 299 299 299 299 299 299 299 299 299 299 299 299 298 298 298 298 298 298 298 298 297 297 297 297 297 297 297 297 298 298 298 297 297 297 300 303 305 306 304 302 301 301 301 299
332 332 331 330 329 328 328 327 326 325 326 325 319 315 312 307 301 300 299 298 299 299 299 299 299 298 299 299 299 298 298 298 298 298 298 298 297 297 297 297 297 297 297 297 296 296 297 297 298 299 299 299 298 296 299 303 304 303 302 302 301 300 300
332 332 331 330 329 329 328 327 327 326 326 323 317 311 307 302 300 300 299 298 299 298 298 299 298 298 298 298 298 298 298 297 297 297 297 297 297 297 296 296 297 298 299 300 299 298 297 296 298 299 299 301 301 298 298 301 303 302 301 302 301 301 301
332 331 330 330 329 329 328 327 327 326 325 321 314 307 304 302 300 299 298 298 298 298 298 298 298 298 298 298 298 298 297 297 297 297 297 297 296 297 296 296 296 297 298 300 301 300 299 298 299 299 300 301 302 301 299 300 302 301 300 300 301 301 302
332 331 330 330 329 328 328 327 327 326 324 319 311 306 305 302 300 300 298 297 298 298 298 298 298 298 298 298 298 297 298 298 297 296 296 296 296 296 297 296 296 295 296 298 299 299 298 299 300 300 300 301 302 301 300 300 301 302 301 300 301 302 302
332 331 330 329 329 328 328 328 327 325 322 316 309 308 306 303 302 302 299 299 298 297 298 298 298 298 298 298 298 298 298 298 297 297 297 296 296 296 296 296 296 296 297 298 299 298 296 298 301 301 300 300 301 300 299 300 301 302 302 301 301 302 301
331 330 330 329 328 328 328 327 325 324 320 313 308 309 307 305 305 303 302 301 298 297 298 297 297 297 297 297 298 298 298 297 298 299 299 298 297 297 297 297 297 298 300 301 301 299 296 296 300 301 299 300 301 299 297 299 301 302 301 301 301 301 301
330 329 329 329 328 328 327 325 323 321 317 311 309 309 307 307 307 304 303 303 300 299 299 297 297 297 296 298 299 299 299 299 300 300 299 298 298 298 299 300 300 300 301 301 299 298 295 295 298 299 297 297 298 297 295 298 300 300 301 301 301 301 300
330 329 329 328 328 327 325 322 320 318 315 311 309 308 306 309 308 305 305 305 302 301 300 299 299 298 298 299 299 299 299 299 299 298 298 298 298 298 299 299 299 299 299 298 297 295 294 295 296 296 295 295 295 295 295 297 298 299 300 300 300 300 300
329 330 329 328 327 326 324 321 317 316 313 311 308 306 306 309 309 307 307 307 305 304 304 303 302 300 299 299 299 299 299 299 298 297 299 301 300 299 299 299 298 297 296 296 295 294 295 295 295 295 295 294 294 295 295 296 297 298 299 299 299 299 299
330 330 328 327 326 324 322 319 316 314 312 309 306 305 308 308 308 308 308 308 307 306 306 306 305 302 301 299 299 300 298 299 299 298 300 302 299 298 299 299 299 296 294 295 295 294 295 295 295 295 294 294 295 294 295 295 297 298 298 298 299 299 299
330 329 328 327 325 322 320 317 315 313 311 307 304 305 307 305 304 308 309 308 309 308 307 307 305 304 304 301 299 300 299 300 300 299 300 300 298 299 301 299 297 294 294 294 294 294 295 294 294 295 294 294 294 294 294 295 295 296 296 296 297 298 298
329 329 328 326 323 321 319 316 314 314 311 306 302 302 303 300 302 308 308 306 307 306 305 306 304 302 304 303 301 301 300 300 300 300 301 301 299 300 302 300 295 293 294 295 294 294 294 294 294 294 294 294 294 294 294 294 294 295 294 295 296 296 298
330 329 327 324 322 320 318 315 314 315 313 307 300 300 302 301 302 304 302 301 302 300 301 304 302 300 301 303 303 302 300 300 302 301 302 303 302 302 303 302 298 294 294 294 295 295 295 294 294 294 294 295 295 295 295 295 295 294 294 294 294 295 297
330 328 324 323 323 323 320 317 316 316 314 307 301 300 303 304 302 299 299 300 299 297 299 301 300 297 298 300 302 303 302 302 303 303 303 304 305 304 303 302 299 296 295 294 294 295 295 295 295 295 295 295 296 296 295 295 295 294 293 294 294 295 296
329 326 324 325 325 323 320 318 316 316 313 307 302 301 302 303 301 298 298 298 298 298 298 298 297 296 295 297 298 301 304 304 302 304 305 305 306 305 303 301 298 297 296 295 294 295 295 295 295 296 297 298 299 299 297 297 297 295 294 294 294 294 294
328 327 326 327 325 321 319 317 315 314 313 308 304 302 302 301 298 297 297 297 298 298 297 295 295 295 295 296 296 299 304 304 303 304 306 305 303 303 302 302 302 300 297 296 295 294 294 295 295 296 299 301 301 300 300 300 299 296 294 294 294 294 294
328 327 327 326 324 321 319 318 316 314 313 309 304 301 300 298 296 296 297 298 299 299 297 295 295 295 294 295 295 297 302 305 305 305 305 301 299 300 299 299 301 300 297 296 295 295 295 296 295 296 300 301 300 300 302 302 300 296 294 294 294 294 295
328 327 327 326 323 321 319 317 315 314 311 307 303 300 299 296 296 297 297 298 301 302 300 295 294 295 294 295 295 295 300 304 304 303 301 297 297 300 299 295 296 298 296 295 295 295 295 296 295 296 298 298 297 300 302 301 298 295 295 295 295 295 295
328 328 327 325 322 320 319 316 313 311 309 305 302 300 298 296 297 298 298 300 304 305 301 295 294 295 294 294 295 294 297 301 300 298 298 297 298 301 298 294 296 298 297 296 295 295 296 296 295 296 296 296 297 300 301 298 295 295 295 295 295 296 297
328 328 327 324 321 319 317 314 312 309 306 303 300 298 298 298 300 299 298 301 304 305 300 295 294 295 294 294 295 294 295 298 298 299 300 299 300 302 297 293 295 296 296 296 296 295 296 296 296 296 295 296 299 300 298 296 295 296 296 296 297 298 299
327 327 325 322 320 318 316 313 311 309 305 302 299 298 300 303 303 299 299 302 303 302 298 295 294 295 294 294 294 293 295 298 300 302 302 300 300 302 298 293 294 295 295 296 295 295 296 296 296 296 295 297 298 297 295 295 296 296 297 298 299 300 300
327 326 323 321 319 317 315 312 310 308 305 302 301 301 302 303 301 298 298 301 301 298 295 295 294 294 294 294 294 293 296 300 302 302 303 302 301 301 298 294 294 295 295 295 295 296 296 296 296 296 295 296 296 295 295 296 296 297 299 300 300 300 299
327 326 324 321 318 316 315 312 310 308 305 303 302 302 299 297 297 296 297 298 297 296 295 295 294 294 294 294 294 293 296 301 303 302 302 302 302 301 300 298 297 296 295 296 296 295 296 296 295 295 295 295 295 295 296 297 298 299 300 300 300 300 299
326 325 323 321 320 318 315 313 311 308 305 303 303 300 296 295 296 297 296 296 295 295 295 294 294 294 294 293 294 293 294 298 301 302 302 302 302 301 301 301 301 298 295 295 296 295 296 296 295 295 295 295 295 296 297 298 299 300 300 300 300 300 299
326 324 323 321 319 317 315 312 309 306 304 303 301 298 296 297 297 296 295 294 294 294 294 294 294 294 294 293 294 294 293 295 299 300 301 302 302 302 302 302 301 298 295 295 295 295 295 295 295 296 296 295 296 297 298 299 300 300 300 301 300 300 300
325 323 322 320 318 316 314 310 308 306 304 303 300 298 298 297 295 295 294 294 294 294 294 294 294 294 294 294 294 294 293 294 296 297 300 302 301 302 302 301 298 296 295 295 295 295 295 295 296 296 297 297 297 298 300 300 300 300 301 301 300 300 300

ECMWFFLT1_850_thetae_114.txt.gz
Theta_e
334 334 334 333 332 332 332 332 332 331 331 331 330 329 327 327 326 324 324 323 323 321 319 319 318 318 317 315 313 313 313 313 311 310 307 305 307 308 311 316 315 315 320 321 318 316 315 314 313 313 312 308 305 303 302 301 300 299 299 300 300 301 301
334 334 334 333 332 332 331 332 332 332 331 331 329 327 326 326 325 324 324 323 321 320 319 319 317 316 314 312 311 309 308 307 307 308 307 304 304 304 304 305 306 307 311 314 316 315 313 313 314 314 312 309 307 308 307 304 303 301 300 301 301 302 302
335 334 334 333 332 332 332 332 332 331 331 330 328 326 325 325 325 324 323 322 321 320 319 318 314 312 311 309 308 306 304 303 304 305 304 303 302 302 302 303 304 306 307 306 309 311 311 311 311 311 310 308 309 310 309 307 304 302 302 302 302 303 302
336 335 334 333 332 332 332 332 332 331 330 328 327 326 325 324 324 324 323 322 320 319 318 316 312 309 308 306 304 303 303 302 302 303 302 302 302 302 302 303 304 307 307 305 304 307 310 312 311 310 309 307 309 310 308 306 305 304 303 302 302 303 302
335 335 335 333 333 333 332 332 331 331 329 327 326 326 325 324 324 324 323 322 319 317 316 313 310 308 306 304 302 302 302 302 302 302 302 302 301 301 302 302 303 304 305 304 303 304 307 310 311 311 309 307 308 309 308 306 305 304 303 302 302 302 302
335 335 334 333 333 332 332 331 331 330 328 326 325 325 325 324 324 323 321 320 318 316 314 311 307 305 303 302 302 302 302 302 302 302 301 301 301 301 301 301 301 302 302 301 301 302 303 306 309 310 308 307 307 307 307 306 305 304 303 302 302 302 302
335 334 334 333 333 332 330 331 330 329 327 325 324 324 324 323 322 322 320 318 317 314 310 307 304 303 302 301 301 301 301 301 301 301 301 301 300 300 300 300 300 299 300 299 299 300 299 300 304 306 307 308 308 307 306 306 305 304 304 302 302 302 302
334 334 334 334 333 331 329 329 329 327 326 325 324 323 323 321 320 320 319 316 314 310 306 303 302 301 301 301 301 301 301 301 301 300 300 300 300 300 300 300 299 299 299 299 299 299 299 299 300 303 306 309 310 307 305 306 305 304 304 302 301 302 302
334 334 334 334 332 329 328 328 327 326 325 324 323 322 322 320 319 319 317 313 309 305 302 301 301 301 301 301 301 301 300 300 300 300 300 299 299 299 299 299 298 298 298 299 299 298 298 298 298 300 302 305 308 306 305 307 306 305 304 301 300 301 301
334 334 334 333 331 329 328 328 327 326 325 324 322 322 321 319 318 316 312 308 304 301 300 300 300 300 300 300 300 300 300 300 300 300 299 299 299 299 299 298 298 298 298 298 298 298 298 298 298 298 298 300 302 303 303 305 306 305 304 300 299 300 299
335 334 333 332 330 328 328 327 326 325 325 324 322 321 320 318 316 313 308 303 301 300 300 300 300 300 300 300 300 300 300 300 300 299 299 299 299 298 298 298 298 298 298 298 298 298 298 298 298 298 297 297 298 298 300 302 303 304 302 299 298 299 299
334 334 332 331 329 328 328 327 326 325 325 324 322 320 319 317 315 312 306 301 300 300 299 300 300 300 300 300 300 300 299 299 299 299 299 299 298 298 297 298 298 298 298 298 297 298 298 298 298 299 298 299 299 297 298 300 300 301 300 299 298 299 299
334 333 332 331 329 328 327 327 326 325 325 324 323 320 317 316 314 310 303 300 299 299 299 299 299 300 300 299 299 299 299 299 299 299 298 298 297 297 297 298 298 298 298 297 297 297 297 297 298 298 298 300 301 298 297 299 299 298 299 299 299 298 299
334 333 332 331 330 328 328 327 326 326 326 325 322 318 316 316 313 307 301 299 299 299 299 299 299 300 299 299 299 299 299 299 298 298 298 298 297 297 297 298 298 298 298 298 298 298 297 298 299 299 299 300 299 298 297 297 298 298 298 299 298 298 299
334 333 332 331 330 329 328 327 327 327 326 325 321 318 316 315 311 305 300 299 299 299 299 299 299 299 299 299 299 298 298 299 298 298 298 297 298 297 298 298 297 297 297 297 298 298 297 298 299 299 298 298 298 297 297 296 297 298 298 298 298 298 299
334 333 332 331 330 329 328 328 327 327 326 325 321 317 315 313 309 304 300 299 298 299 299 299 299 299 299 299 298 298 299 299 298 298 298 298 298 297 298 297 297 297 297 297 297 297 297 297 299 298 297 297 298 297 296 296 297 298 298 298 298 298 299
333 332 332 331 330 330 329 328 328 326 326 325 319 315 314 312 308 304 302 300 299 298 298 298 298 298 298 299 298 298 299 298 298 297 297 297 297 297 297 297 297 296 297 297 297 297 297 297 297 297 297 296 297 297 296 296 297 298 298 298 298 298 299
333 332 332 331 330 330 329 329 328 327 327 324 318 314 313 311 308 306 303 301 299 298 299 298 298 299 298 298 298 298 299 298 298 298 298 297 297 297 297 297 296 297 297 297 297 297 297 297 297 297 297 296 296 296 296 296 296 297 297 298 298 298 298
333 333 332 331 330 330 329 328 327 327 326 322 317 314 313 310 309 307 304 303 300 299 299 298 298 298 298 298 298 298 298 298 299 299 298 297 297 297 297 297 297 297 297 297 297 297 296 296 297 297 297 297 296 297 296 296 296 296 296 297 297 297 297
332 333 332 331 331 330 329 328 327 326 325 320 316 314 312 310 309 306 305 304 303 302 301 299 298 298 298 298 298 298 298 299 299 299 298 297 297 297 297 297 297 297 297 296 296 296 296 296 296 297 297 297 297 297 296 296 296 296 295 296 296 296 296
332 333 332 332 331 330 329 327 326 326 323 318 316 313 311 309 308 307 307 307 306 305 302 299 299 299 298 298 299 299 300 300 299 298 298 297 296 296 296 296 296 296 296 296 296 296 296 296 296 296 296 296 297 296 296 296 296 295 295 295 295 295 295
333 333 332 331 330 329 328 327 325 324 320 317 315 313 310 309 308 308 308 307 305 303 301 299 300 299 298 298 299 299 300 300 299 298 299 299 297 296 296 296 296 296 295 295 296 295 296 296 296 296 297 296 296 296 296 296 296 296 295 295 295 295 295
333 332 331 330 329 329 327 325 323 321 318 316 315 312 309 309 308 308 307 305 303 301 300 300 300 299 298 298 298 298 299 301 300 298 299 300 297 296 298 297 295 296 295 295 296 295 296 296 296 296 297 296 296 296 296 296 296 297 296 295 295 295 294
333 332 330 329 328 328 326 323 322 319 317 316 315 311 309 309 308 306 305 304 303 303 301 300 299 299 298 298 298 299 300 302 302 299 299 300 297 298 302 301 295 295 295 295 295 295 295 296 296 296 296 296 296 297 297 297 298 298 297 296 295 295 294
333 331 330 329 328 327 324 321 319 318 317 317 315 312 310 308 306 303 303 306 306 303 300 300 299 298 300 300 299 300 300 301 302 302 301 301 300 300 303 302 296 295 296 295 295 296 296 296 296 296 296 296 297 298 299 299 300 300 299 297 295 294 295
332 330 329 329 328 326 323 320 318 318 319 318 316 314 310 306 304 302 303 307 307 302 300 301 299 298 301 301 300 301 303 302 303 304 303 303 304 305 304 302 297 295 296 295 295 296 296 296 296 296 296 296 298 299 299 301 302 301 300 297 295 294 295
330 329 329 329 327 325 323 321 320 319 320 320 317 314 309 304 302 302 303 306 305 302 301 300 299 299 301 302 300 301 305 305 304 305 304 304 306 307 306 303 299 299 299 298 296 295 296 296 296 296 296 297 298 298 299 302 303 301 299 296 295 295 297
330 329 328 329 327 325 323 322 321 320 320 319 317 314 309 303 301 301 303 305 304 302 301 299 299 299 300 301 300 301 306 306 304 304 306 306 306 306 305 302 302 303 303 300 297 295 295 295 296 296 296 297 297 297 300 303 302 299 297 295 296 297 298
329 329 329 328 328 325 324 323 322 321 319 318 316 314 308 302 300 300 302 303 302 302 300 299 298 299 298 298 298 301 304 305 303 305 307 306 305 303 302 300 299 302 302 299 296 295 295 295 296 296 296 297 296 297 301 302 299 297 296 296 298 299 299
330 330 329 328 327 326 325 324 323 322 319 316 315 313 307 301 299 301 301 301 301 302 301 300 298 298 297 295 296 299 302 303 304 306 306 304 301 299 298 297 296 298 299 298 296 295 296 296 296 296 297 297 296 297 299 298 296 296 297 298 299 300 300
329 328 328 328 327 326 325 324 324 322 319 316 315 312 307 302 300 301 299 298 300 303 304 302 300 297 295 295 295 297 299 302 304 304 303 300 297 297 298 297 295 297 298 297 296 296 296 296 296 296 297 297 297 297 296 296 296 297 299 300 300 300 300
326 327 327 328 327 326 326 325 324 322 319 316 314 312 308 304 301 299 296 297 302 306 306 304 302 298 295 295 295 295 297 300 301 301 300 299 297 298 300 298 295 295 296 295 296 295 296 296 296 296 297 297 297 296 296 296 297 298 299 300 300 300 300
327 328 328 328 327 326 327 325 324 321 318 315 312 310 306 302 300 298 297 299 304 307 307 305 303 299 296 294 294 295 295 298 300 300 301 302 301 300 300 298 295 295 295 295 296 295 296 296 296 296 297 297 296 296 296 297 298 299 300 300 301 301 300
328 328 328 328 327 326 326 325 323 320 317 313 310 306 303 301 301 301 300 301 304 306 305 304 301 298 296 295 295 295 294 296 300 302 302 303 302 301 300 298 295 295 295 295 295 295 296 297 296 296 297 297 296 296 297 298 299 300 300 301 301 301 300
328 327 327 327 326 326 325 323 321 318 315 311 307 304 302 302 303 303 302 302 304 305 303 300 298 296 296 296 295 294 294 295 300 303 303 303 303 302 301 300 298 297 297 296 296 295 296 296 296 296 297 297 297 297 298 300 300 300 300 301 301 300 300
327 327 327 327 326 325 324 322 319 316 313 309 306 304 302 302 303 303 302 302 303 302 299 298 297 296 296 296 295 294 294 295 300 303 303 303 303 303 302 302 301 300 300 298 296 295 296 296 296 296 297 298 298 298 300 300 301 300 300 301 301 300 300
327 327 327 326 325 324 323 321 318 314 311 309 307 305 303 303 304 302 302 303 303 300 297 296 296 295 296 296 295 294 294 295 299 302 302 303 303 302 302 303 302 301 301 299 297 296 296 296 296 297 298 299 299 300 300 301 301 300 300 301 301 300 300

ECMWFFLT1_850_thetae_117.txt.gz
Theta_e
335 333 333 334 335 335 335 334 334 334 334 332 332 331 331 330 329 327 326 324 324 324 324 323 323 322 322 322 321 321 322 322 321 321 320 318 318 323 324 324 323 320 320 321 318 317 315 313 313 313 314 312 308 306 307 306 305 302 301 300 299 299 298
334 334 334 334 335 335 334 333 333 333 332 332 331 331 330 329 327 326 324 324 324 324 324 322 321 320 320 319 317 318 320 321 320 316 313 310 309 313 316 316 315 315 318 320 318 316 314 312 312 312 312 310 307 307 308 307 306 304 302 301 300 300 299
334 334 334 334 334 334 333 332 332 332 331 331 330 330 329 327 326 325 324 324 324 324 323 321 320 318 316 316 314 314 315 316 316 312 309 308 305 306 307 307 307 308 312 317 318 317 314 311 310 310 309 308 307 308 308 307 306 304 303 302 301 301 301
334 334 333 333 333 333 332 332 331 331 331 331 330 329 328 326 326 325 324 324 323 323 322 321 319 316 313 312 311 310 309 309 309 307 307 307 304 303 303 303 304 303 306 310 312 313 312 311 310 309 309 308 307 307 308 307 306 304 302 302 302 302 302
334 334 333 332 332 332 332 331 331 331 331 331 331 329 327 325 325 325 324 323 322 322 321 320 318 315 312 310 309 307 305 304 304 304 304 304 303 302 302 302 303 302 303 304 305 306 307 309 309 309 308 307 306 307 308 307 305 303 302 302 302 302 302
334 334 333 332 332 331 331 331 332 332 331 331 330 329 326 325 325 325 324 323 322 321 320 319 316 313 310 309 307 305 303 302 302 302 302 302 302 302 302 302 302 302 302 303 302 302 302 304 306 308 308 307 306 306 306 306 305 303 302 302 302 302 302
334 333 332 332 332 332 332 332 332 332 331 331 330 328 326 325 324 324 324 323 322 320 318 316 314 310 307 306 304 303 302 302 302 302 302 302 302 302 301 301 301 301 301 301 301 301 300 301 302 304 306 305 306 307 306 306 305 303 302 303 302 301 302
334 334 333 332 333 333 333 332 332 332 331 330 329 327 325 325 324 324 324 322 320 318 316 314 311 308 305 303 302 302 302 301 302 301 301 301 301 301 301 301 301 301 300 300 300 300 299 299 300 300 301 303 306 307 306 306 306 304 304 304 301 300 300
335 334 333 333 334 334 333 332 332 331 330 330 329 327 325 324 324 324 323 321 319 316 313 310 307 305 303 302 301 301 301 301 301 301 301 301 301 301 301 300 300 300 300 300 299 299 299 299 299 299 299 303 307 307 305 306 306 305 305 303 300 298 299
335 334 334 334 334 333 333 332 331 331 330 328 327 326 325 324 323 323 322 320 317 313 310 307 304 302 301 301 301 301 301 301 301 301 301 301 301 301 300 300 300 300 299 299 299 299 299 299 299 299 299 302 305 303 302 304 304 303 302 300 298 298 298
335 335 334 334 334 333 333 332 331 330 328 327 326 325 324 323 323 323 321 317 312 309 306 303 301 300 300 300 300 301 301 301 301 301 301 301 300 300 300 300 299 299 299 299 298 298 298 298 298 298 298 299 300 298 298 300 300 300 300 298 298 298 298
335 335 335 335 334 333 333 331 330 328 327 326 325 324 324 323 322 322 319 312 308 306 304 302 301 300 300 300 300 301 301 301 301 300 300 300 300 300 299 299 299 299 299 298 298 298 298 298 298 298 298 298 298 298 298 298 299 299 299 298 298 298 297
336 336 335 334 334 333 332 330 328 328 327 326 325 324 323 323 322 322 316 308 305 304 302 301 300 300 300 300 300 301 300 300 300 300 300 300 299 299 299 299 299 299 298 298 298 298 298 298 298 298 298 298 298 298 298 298 298 298 298 298 298 297 297
336 336 335 334 333 332 330 329 328 327 326 325 324 324 324 323 322 319 312 306 304 303 301 301 300 300 300 300 300 300 300 300 300 300 299 299 299 299 299 299 298 298 298 298 298 298 298 298 298 298 298 298 298 297 298 298 298 298 298 298 297 297 297
336 335 335 334 333 332 330 329 328 326 326 325 324 324 324 323 320 316 310 306 303 302 301 300 300 300 300 300 300 300 300 300 300 299 299 299 299 299 299 298 298 298 298 298 298 298 298 298 298 298 298 297 298 298 298 298 297 298 298 298 297 297 297
336 335 334 334 332 331 329 328 327 326 325 325 325 325 324 322 318 313 308 305 302 301 300 300 299 300 300 300 300 300 300 300 299 299 299 299 299 298 298 298 298 298 298 298 298 298 298 298 298 298 298 297 298 298 297 297 297 297 297 298 297 296 296
336 335 334 333 332 330 329 328 327 326 326 325 325 325 323 320 316 310 306 304 302 301 300 300 299 300 299 300 299 299 300 299 299 299 299 299 298 298 298 298 297 297 297 298 298 298 298 298 298 298 298 297 298 297 297 297 297 297 297 297 297 296 296
335 334 333 332 331 330 329 329 327 326 326 326 326 325 323 320 314 309 306 304 302 301 300 300 299 300 299 299 299 299 299 299 299 299 298 298 298 298 298 297 297 297 297 298 298 297 297 297 297 297 297 298 297 297 297 297 297 297 296 296 296 296 296
335 334 333 332 331 330 330 329 327 326 326 326 326 325 323 319 314 309 306 304 302 301 300 299 299 299 299 299 299 299 299 299 299 299 298 298 298 298 297 297 297 297 297 298 297 297 297 297 297 297 297 297 297 297 297 297 297 297 296 296 296 296 296
334 333 333 332 331 330 330 329 328 327 326 326 326 325 323 319 314 310 307 304 302 301 300 299 299 299 299 299 299 299 299 299 299 298 298 298 298 298 297 297 297 297 297 297 297 297 297 297 297 297 297 297 297 297 297 297 297 297 296 296 296 295 295
334 333 333 332 331 331 330 329 328 327 326 326 326 325 324 321 314 309 307 304 302 301 300 299 299 299 299 299 299 299 299 299 298 298 299 298 298 298 297 297 297 297 297 297 297 297 297 297 297 297 297 297 297 297 297 297 297 297 296 296 295 295 295
335 334 333 332 331 331 330 329 329 328 327 327 326 325 324 321 315 310 307 304 303 301 299 299 299 298 299 300 300 299 299 299 298 298 298 298 298 298 298 297 297 297 296 296 296 296 296 296 297 297 297 297 297 297 297 297 297 297 296 296 295 295 295
335 334 333 332 332 332 331 330 329 328 327 327 326 325 323 320 315 310 307 305 304 303 300 300 299 298 301 303 301 299 299 299 298 298 298 298 298 298 298 297 297 297 297 296 296 296 296 296 297 297 297 297 297 297 297 298 297 297 296 296 295 295 296
334 334 333 332 332 332 331 330 330 328 327 327 326 325 323 319 314 310 308 306 305 304 302 300 299 301 304 304 300 298 299 299 298 298 298 297 298 298 297 297 297 296 296 296 296 296 296 296 296 297 297 297 297 297 298 298 297 297 297 296 295 296 297
333 333 332 332 332 332 331 330 330 328 327 327 326 324 321 318 314 310 308 307 306 305 304 301 301 304 305 301 298 299 299 299 299 298 297 297 297 297 297 297 297 296 296 296 296 296 296 296 296 296 296 296 297 297 297 297 298 298 297 296 296 297 298
334 333 332 331 332 331 330 330 329 328 327 327 326 323 319 316 313 311 309 308 307 306 304 302 303 304 302 299 298 299 299 299 298 298 297 297 297 297 296 297 297 296 295 296 296 296 296 296 296 297 297 296 297 297 297 298 298 298 296 296 297 298 299
334 332 332 332 332 331 330 329 329 327 327 326 325 322 319 317 314 311 309 308 308 306 305 305 305 303 301 299 299 299 300 299 298 298 298 297 297 298 298 298 298 297 296 295 296 296 296 296 297 297 297 297 297 297 297 297 297 296 296 296 298 298 299
333 333 332 332 331 330 330 329 328 327 327 326 325 323 320 317 315 312 310 309 308 306 305 306 306 302 300 300 300 300 300 299 298 299 299 298 299 301 302 302 301 299 297 296 297 296 296 296 297 296 297 297 297 297 297 297 296 296 296 297 298 299 299
333 333 332 331 330 330 329 329 328 327 326 325 323 321 319 317 315 312 310 309 308 306 305 306 305 302 301 301 301 301 301 300 300 301 300 300 302 304 305 304 303 300 297 296 297 297 296 296 296 296 296 297 297 297 297 296 296 296 297 298 299 300 300
334 333 332 331 330 329 329 328 328 327 326 326 324 321 318 316 314 312 310 308 306 304 304 305 304 302 302 301 301 301 301 301 302 303 302 302 304 305 305 304 303 302 298 296 297 296 296 296 296 296 297 297 297 297 296 296 296 297 298 298 300 300 300
333 332 332 331 329 329 328 328 328 327 327 326 324 322 319 317 315 313 310 308 305 303 303 304 303 302 302 301 300 300 301 303 303 303 303 303 304 305 304 303 302 300 298 296 296 296 296 296 296 296 297 297 297 297 296 296 297 297 298 299 300 300 300
333 332 331 330 329 329 328 328 328 327 327 326 324 321 319 317 315 313 310 307 304 302 302 303 302 301 301 300 300 300 301 303 303 302 302 303 303 303 302 300 298 297 296 295 296 296 296 295 296 296 296 297 297 296 296 297 297 297 298 299 300 300 300
332 332 331 330 329 328 328 328 328 327 327 325 322 320 319 317 315 312 309 306 302 301 302 301 300 300 300 299 299 298 298 299 300 300 301 302 301 300 299 296 296 296 297 295 295 295 295 295 296 296 296 297 297 296 297 297 297 298 299 300 300 300 299
331 331 331 330 329 328 328 328 327 327 326 324 321 320 318 316 314 311 307 303 301 300 301 300 299 299 300 299 298 296 296 297 297 298 300 300 299 298 297 296 296 297 297 295 295 295 295 295 296 296 296 297 297 297 297 297 298 299 299 300 300 300 299
331 330 330 329 328 328 327 327 327 326 325 323 321 320 318 315 313 309 304 301 300 299 299 299 299 300 301 301 299 296 295 295 296 297 298 298 298 299 299 298 297 298 297 296 295 295 295 295 296 296 296 297 297 298 298 298 299 299 300 300 300 300 300
330 330 329 329 328 328 328 327 326 325 324 322 321 320 317 314 310 306 303 301 299 298 299 299 300 301 302 302 301 297 295 295 296 296 297 298 299 300 300 299 298 298 299 298 296 296 296 295 296 296 296 297 298 298 298 299 299 299 300 300 300 300 300
330 329 329 328 328 328 327 326 325 323 321 320 320 318 316 313 309 306 304 302 299 299 299 300 301 302 302 302 301 297 295 295 295 295 297 299 300 301 300 300 299 300 301 300 299 298 297 296 296 296 297 298 299 299 299 299 300 300 300 300 300 300 300

ECMWFFLT1_850_thetae_123.txt.gz
Theta_e
334 333 333 334 334 333 331 332 333 333 331 330 332 333 332 332 332 333 332 332 332 332 331 331 330 329 329 327 325 324 324 324 325 326 326 326 326 327 327 328 327 328 328 325 324 322 321 319 313 307 306 308 308 306 306 306 304 302 301 301 301 301 301
334 333 333 334 334 334 333 333 334 333 331 331 332 332 332 332 333 333 332 332 332 331 330 329 328 327 326 325 323 322 322 323 323 324 325 325 326 327 327 327 327 327 327 326 324 322 321 320 317 313 312 311 310 308 307 306 304 302 302 301 301 302 301
334 334 334 335 335 334 333 334 335 334 332 331 332 332 333 333 333 333 332 332 331 330 330 328 327 326 325 323 322 322 322 323 323 324 324 325 326 327 326 326 327 327 326 325 324 323 322 321 320 318 314 312 311 308 307 307 304 302 302 302 302 302 301
335 334 334 335 335 334 333 334 334 334 333 332 332 333 333 333 333 333 332 332 331 330 329 328 327 326 324 323 323 322 322 322 322 323 324 325 326 325 324 323 323 324 324 324 324 323 321 320 320 318 313 312 310 307 307 307 304 302 302 303 303 302 302
335 334 334 335 334 334 334 333 333 333 333 333 333 333 333 333 333 332 331 331 330 329 328 328 326 325 324 323 323 323 322 321 321 321 322 324 325 323 322 321 318 317 318 318 319 320 318 317 317 316 312 310 309 307 308 308 306 304 304 303 303 302 302
335 333 333 334 334 334 335 335 334 333 332 333 333 333 333 333 332 332 331 330 330 328 327 327 326 324 323 324 323 323 322 320 319 318 318 319 321 322 320 317 313 310 310 311 313 314 312 312 314 314 312 310 308 307 308 309 307 305 304 303 302 302 302
335 333 333 334 334 335 336 336 335 333 332 332 332 333 333 333 332 331 331 330 330 328 327 326 325 324 323 323 323 323 321 319 318 316 315 315 315 316 315 313 309 307 306 306 307 307 307 308 310 311 310 309 308 307 309 309 307 304 303 302 302 302 302
333 333 333 334 335 336 337 336 335 334 332 332 333 333 333 333 332 331 331 330 330 329 327 325 325 324 323 323 323 322 320 318 315 313 312 311 310 310 310 309 307 305 304 304 305 305 305 304 304 305 306 307 307 307 308 308 305 302 302 302 302 302 303
332 332 333 335 336 337 337 337 336 334 333 333 334 333 333 332 332 331 330 330 330 329 327 325 325 325 324 324 322 321 318 314 311 309 308 307 307 307 307 306 305 304 303 303 303 303 302 301 300 301 302 305 306 306 307 307 304 302 303 303 303 303 303
331 331 333 336 337 337 338 337 335 334 334 334 333 333 332 332 331 330 330 330 330 329 327 325 325 325 325 323 322 319 314 310 307 305 304 304 305 305 304 303 302 302 301 301 300 300 300 299 299 299 300 303 305 305 305 306 305 303 304 304 303 302 300
331 332 334 336 337 337 338 337 335 334 334 334 333 332 332 331 330 330 331 331 330 328 327 326 325 325 324 322 319 315 310 305 303 302 301 302 303 302 301 301 300 300 300 300 299 299 299 299 299 299 299 299 302 304 305 305 305 305 304 303 301 300 298
332 334 335 337 337 337 338 337 335 335 334 333 332 332 331 331 330 331 331 331 329 328 326 326 325 324 322 320 316 311 306 303 301 301 300 301 301 300 300 300 300 300 299 299 299 299 299 299 299 299 299 298 301 304 304 304 304 304 302 300 299 298 298
333 335 336 337 337 338 338 337 336 335 335 333 332 331 331 331 331 331 330 329 328 327 326 325 325 323 320 316 312 307 303 301 300 300 300 300 300 300 300 299 299 299 299 299 299 299 299 299 299 298 298 298 299 301 301 300 301 301 299 298 297 297 297
334 335 336 337 337 338 338 337 336 336 334 333 332 332 332 331 330 330 330 328 327 326 325 325 323 320 316 312 307 303 301 300 300 300 300 300 300 300 299 299 299 299 299 299 299 298 298 298 298 298 298 298 298 298 298 298 299 298 297 297 297 297 297
336 335 335 337 338 338 338 337 336 335 334 333 333 333 332 331 330 330 329 328 326 325 324 324 321 316 312 308 304 301 300 300 300 299 299 300 299 299 299 299 299 299 299 298 298 298 298 298 298 298 298 298 298 298 298 298 298 298 297 297 297 297 297
337 336 336 337 338 338 337 336 335 335 334 333 333 333 332 331 329 330 329 327 326 324 324 323 318 312 308 305 301 300 300 299 299 299 299 299 299 299 299 299 298 298 298 298 298 298 298 298 298 298 298 298 298 298 298 298 298 297 297 297 297 297 296
338 337 336 337 337 338 337 335 333 334 334 333 334 333 331 330 329 329 328 326 325 324 324 321 314 308 304 302 300 300 299 299 299 299 299 299 299 299 299 298 298 298 298 298 298 298 298 297 297 297 297 298 298 298 298 298 298 297 297 297 296 296 296
339 338 337 336 337 337 337 334 333 334 334 334 334 333 331 330 329 328 327 325 325 324 323 319 311 305 302 300 299 299 299 299 299 299 299 299 298 298 298 298 298 298 298 298 297 298 297 297 297 297 297 298 298 298 298 297 297 297 297 296 296 296 296
339 339 338 336 336 336 336 334 333 334 335 334 334 332 331 330 329 328 326 325 324 323 321 317 309 302 301 300 299 299 299 299 299 298 299 298 298 298 298 298 298 297 297 297 297 297 297 297 297 297 297 297 297 297 297 297 297 297 297 296 296 296 296
339 340 339 337 335 335 336 335 334 335 335 334 334 332 331 330 328 327 325 325 324 322 320 315 307 301 300 299 299 299 299 298 298 298 298 298 298 298 298 297 297 297 297 297 297 297 297 297 297 297 297 297 297 297 297 297 297 297 297 296 296 296 297
340 340 339 337 335 335 336 335 335 336 334 333 333 332 331 329 327 326 324 324 324 321 318 313 306 301 300 299 299 299 298 298 298 298 298 298 297 297 297 297 297 297 297 297 297 297 297 296 297 297 297 297 297 297 297 297 297 297 296 295 296 296 297
340 340 339 337 335 335 336 336 335 335 334 332 333 332 330 328 326 325 325 324 324 321 316 310 305 301 300 300 299 298 298 298 298 298 298 298 298 298 297 297 297 297 296 296 297 297 296 296 296 296 297 297 297 297 297 297 297 297 296 296 296 297 297
340 340 339 338 336 334 335 336 336 335 334 332 331 330 329 327 326 325 325 325 324 321 315 308 303 301 300 300 299 298 299 298 299 299 298 298 298 298 297 297 297 297 297 296 296 296 296 296 296 296 296 296 296 296 297 297 297 297 296 296 296 297 297
340 340 339 339 337 335 335 336 336 336 334 333 331 330 328 327 326 325 325 325 324 323 317 309 303 301 300 299 299 299 299 299 299 299 299 299 299 298 297 297 297 297 297 296 296 296 296 296 296 296 296 296 296 296 297 297 297 296 296 296 297 297 297
339 340 339 339 337 335 335 336 336 336 335 333 331 330 328 327 326 326 325 325 325 324 319 310 304 302 300 299 299 299 299 300 299 299 300 300 299 299 298 297 297 297 297 296 296 296 296 296 296 296 296 296 296 297 297 297 297 296 296 296 297 297 298
339 339 339 338 337 335 336 336 336 335 334 332 331 330 328 327 326 326 326 325 325 324 320 313 306 302 301 300 300 300 300 300 299 300 302 301 300 300 300 298 297 297 297 296 296 296 295 296 296 296 296 296 296 297 297 297 297 296 296 296 297 297 298
339 339 338 337 337 335 335 336 336 335 334 332 331 330 329 327 327 326 326 325 325 324 321 315 308 304 302 301 301 300 300 299 299 302 303 302 301 301 300 298 297 297 296 296 296 295 295 295 296 296 296 296 296 297 297 297 297 296 296 296 297 297 298
339 338 338 337 336 336 336 336 336 335 334 333 331 331 329 328 327 327 326 325 324 324 322 317 311 306 304 303 302 301 300 299 301 303 303 302 302 301 299 298 297 297 297 296 295 295 295 295 295 296 296 296 296 297 297 297 296 296 296 296 297 298 298
338 338 337 337 337 336 336 336 335 335 334 333 332 331 330 329 328 327 326 325 324 324 322 318 312 308 306 304 303 301 300 301 303 304 303 302 302 301 299 297 297 297 297 297 296 295 295 295 295 295 295 296 296 296 297 297 296 296 296 296 297 298 298
337 338 337 337 336 336 335 335 334 334 333 332 332 331 330 329 328 327 327 326 325 324 323 319 314 310 308 306 304 302 301 302 304 303 302 301 301 300 298 298 298 298 299 299 299 297 297 296 295 295 295 296 296 296 296 297 296 296 296 297 298 298 298
337 337 337 337 336 335 334 334 334 334 333 333 333 331 330 329 328 327 327 327 325 324 323 320 316 313 310 307 305 303 303 304 304 303 302 301 300 299 298 299 300 300 301 302 302 300 299 298 296 295 295 296 296 296 296 296 296 296 296 297 298 298 298
337 337 337 337 336 336 335 334 334 333 333 333 332 331 330 329 328 328 327 326 324 323 322 320 317 314 311 308 307 306 305 305 304 303 301 300 300 299 298 299 300 300 302 304 303 302 301 299 297 295 295 295 296 296 296 296 296 296 296 297 297 297 297
336 337 337 336 335 336 336 334 332 331 331 332 331 331 329 329 329 328 327 326 324 322 320 319 318 316 312 310 308 307 307 306 304 302 301 300 300 299 299 298 299 301 304 304 303 303 302 299 297 296 295 295 295 296 296 296 296 296 297 297 297 297 297
335 336 337 336 335 336 336 334 332 330 331 331 331 330 329 329 329 328 326 326 324 322 320 319 318 316 313 311 309 308 308 307 305 303 302 300 299 299 299 299 300 302 303 304 303 303 302 299 297 295 295 295 295 296 296 296 297 297 297 297 297 297 297
335 335 336 336 336 335 335 333 332 330 330 330 330 330 330 329 329 328 326 325 324 322 320 318 317 315 314 312 310 309 309 308 305 303 302 301 300 299 299 299 301 302 303 303 303 303 302 299 296 295 295 294 295 296 296 297 297 297 297 297 296 297 297
335 335 334 333 333 334 334 333 331 330 330 330 329 329 328 328 328 327 326 325 324 322 320 317 316 315 314 312 310 309 309 308 306 304 303 301 300 299 299 300 301 302 303 303 303 301 300 297 295 294 294 294 295 295 296 297 297 297 297 297 297 297 298
335 335 334 333 333 334 334 333 331 329 328 329 329 328 326 325 326 327 326 325 324 321 319 317 315 314 313 312 310 310 309 308 306 304 303 302 300 299 299 301 302 302 302 302 301 299 298 297 295 294 294 294 295 295 296 298 298 298 298 298 298 298 299